[{"header": {"parameterCategory": 1, "parameterNumber": 2, "dx": 0.06612293990616946, "dy": 0.0552356325346848, "nx": 98, "ny": 59, "la1": 35.046912555036876, "la2": 31.78801023549047, "lo1": -121.43107172385933, "lo2": -114.95102361305473, "refTime": "2026041601"}, "data": [8.94, 9.39, 9.39, 9.39, 9.83, 9.83, 9.83, 10.28, 10.28, 10.28, 9.83, 8.94, 7.6, 6.71, 6.26, 6.26, 5.81, 5.81, 5.36, 4.92, 4.47, 4.92, 5.36, 3.13, 0.45, -0.45, -1.34, -1.34, -1.34, -1.34, -0.89, -0.45, 0.0, 0.89, 1.79, 2.24, 2.68, 3.13, 3.58, 4.02, 4.92, 5.36, 6.26, 7.15, 8.94, 10.73, 11.18, 10.73, 9.83, 8.94, 8.94, 9.39, 9.39, 9.83, 10.28, 10.73, 11.18, 11.18, 11.18, 11.18, 11.18, 10.73, 10.73, 10.73, 11.18, 11.18, 11.18, 11.18, 11.18, 11.18, 10.28, 9.83, 9.39, 9.39, 8.94, 8.94, 8.49, 8.05, 7.6, 7.15, 6.26, 3.58, 0.89, 0.0, 0.0, 0.89, 1.79, 2.68, 3.58, 3.13, 2.68, 2.68, 2.68, 2.68, 3.13, 3.58, 3.58, 4.02, 8.94, 8.94, 9.39, 9.39, 9.83, 9.83, 9.83, 9.83, 10.28, 10.28, 9.39, 8.05, 7.15, 7.15, 6.26, 5.81, 5.36, 5.36, 4.92, 4.92, 4.47, 4.47, 4.47, 3.13, 0.89, -0.45, -1.34, -1.79, -1.79, -1.34, -1.34, -0.45, 0.0, 0.45, 1.34, 2.24, 3.13, 3.13, 3.58, 4.02, 4.92, 5.36, 6.71, 8.05, 9.83, 10.28, 9.83, 8.49, 8.05, 8.05, 8.05, 8.49, 9.39, 9.83, 10.28, 10.73, 11.18, 11.18, 11.18, 11.18, 11.18, 10.73, 10.73, 10.73, 11.18, 11.18, 11.18, 11.18, 11.18, 10.73, 10.28, 9.83, 9.39, 8.94, 8.94, 8.49, 8.05, 8.05, 7.6, 7.15, 6.26, 3.58, 0.89, 0.0, 0.0, 0.89, 1.79, 2.68, 3.58, 3.13, 2.68, 2.68, 2.68, 2.68, 3.13, 3.58, 3.58, 4.02, 8.94, 8.94, 8.94, 9.39, 9.39, 9.83, 9.83, 9.83, 9.83, 9.83, 8.94, 8.05, 7.15, 7.15, 6.71, 6.26, 6.26, 6.26, 5.81, 4.92, 4.92, 4.47, 4.47, 3.13, 0.89, -0.45, -1.34, -1.79, -1.79, -1.79, -1.34, -0.89, 0.0, 0.45, 1.34, 2.24, 3.13, 3.58, 4.02, 4.47, 5.36, 6.71, 8.05, 8.49, 9.39, 9.39, 8.49, 7.6, 7.15, 7.6, 8.05, 8.49, 8.94, 9.39, 9.83, 10.28, 10.73, 11.18, 11.18, 11.18, 10.73, 10.73, 10.73, 10.73, 10.73, 10.73, 10.73, 10.73, 10.73, 10.28, 9.83, 9.39, 8.94, 8.49, 8.49, 8.49, 8.05, 7.6, 7.15, 6.71, 5.36, 2.68, 0.0, -0.45, 0.0, 0.45, 1.79, 2.24, 2.68, 2.68, 2.24, 2.24, 2.24, 2.68, 3.13, 3.58, 4.02, 4.47, 8.49, 8.94, 8.94, 8.94, 9.39, 9.83, 9.83, 9.83, 9.83, 9.39, 8.94, 8.05, 7.15, 6.71, 6.26, 6.71, 6.71, 6.71, 6.26, 5.81, 5.36, 4.92, 4.92, 4.02, 1.34, -0.45, -1.34, -1.79, -1.34, -1.34, -0.89, -0.89, -0.45, 0.0, 1.34, 2.24, 3.13, 3.58, 4.02, 4.92, 5.81, 7.15, 7.6, 8.05, 8.05, 8.05, 7.6, 7.6, 7.6, 8.05, 8.49, 8.49, 8.94, 9.39, 9.83, 10.28, 10.73, 10.73, 10.73, 10.73, 10.73, 10.73, 10.73, 10.73, 10.73, 10.28, 10.28, 10.73, 10.28, 9.83, 9.39, 8.49, 8.05, 8.05, 8.49, 8.05, 7.6, 7.15, 7.15, 6.26, 4.02, 1.34, 0.0, -0.45, 0.0, 0.45, 1.34, 1.79, 2.24, 2.24, 1.79, 1.79, 1.79, 2.24, 3.13, 3.58, 4.02, 4.02, 8.49, 8.49, 8.94, 8.94, 9.39, 9.39, 9.83, 9.83, 9.83, 9.39, 8.49, 7.6, 6.71, 5.81, 6.26, 6.26, 6.71, 6.71, 6.26, 5.81, 5.36, 4.47, 4.47, 4.92, 2.68, 0.0, -0.89, -0.89, -0.89, -0.45, -0.45, -0.45, 0.0, 0.0, 1.34, 2.24, 2.68, 3.58, 4.47, 4.47, 5.36, 6.26, 6.71, 7.15, 7.15, 7.15, 7.6, 7.6, 8.05, 8.05, 8.49, 8.94, 8.94, 9.39, 9.83, 9.83, 10.28, 10.28, 10.73, 10.73, 10.73, 10.28, 10.28, 10.28, 10.28, 9.83, 9.39, 9.39, 8.94, 8.94, 8.49, 8.49, 8.49, 8.05, 7.6, 7.6, 7.15, 6.71, 5.36, 4.92, 2.24, 0.0, 0.0, -0.45, -0.45, 0.0, 0.89, 1.34, 1.34, 1.34, 1.34, 1.34, 1.79, 2.24, 3.13, 3.58, 4.02, 3.58, 8.49, 8.49, 8.94, 8.94, 8.94, 9.39, 9.39, 9.39, 9.39, 8.94, 8.05, 7.15, 6.26, 5.81, 6.26, 6.26, 6.26, 6.26, 6.26, 6.26, 5.36, 4.47, 3.58, 3.58, 2.68, 0.45, -0.45, -0.45, -0.45, 0.0, 0.0, 0.0, 0.89, 1.79, 1.79, 1.79, 2.24, 4.02, 4.47, 4.02, 4.02, 4.47, 5.36, 6.26, 7.15, 7.15, 7.15, 7.6, 7.6, 8.05, 8.05, 8.49, 8.49, 8.94, 9.39, 9.83, 9.83, 9.83, 10.28, 10.73, 10.28, 9.83, 9.83, 9.39, 9.39, 8.94, 8.05, 8.05, 8.05, 8.49, 8.49, 8.49, 8.49, 8.05, 7.15, 6.71, 5.81, 5.36, 3.58, 2.68, 0.45, -0.45, -0.45, -0.89, -0.89, -0.45, 0.0, 0.45, 0.45, 0.45, 0.45, 0.89, 1.79, 2.24, 3.13, 3.58, 3.13, 2.68, 8.49, 8.49, 8.49, 8.94, 8.94, 9.39, 9.39, 9.39, 9.39, 8.94, 7.6, 6.26, 5.81, 6.26, 6.26, 6.26, 6.71, 6.71, 6.71, 6.71, 6.71, 5.81, 4.47, 3.13, 0.89, 0.0, -0.45, -0.45, -0.45, 0.0, 0.0, 0.45, 1.79, 3.13, 3.13, 2.24, 2.24, 2.68, 2.24, 1.34, 1.79, 2.24, 3.13, 4.02, 4.92, 5.81, 6.26, 6.71, 6.71, 6.71, 6.71, 7.6, 8.05, 8.49, 8.94, 9.39, 9.83, 9.83, 10.28, 10.28, 9.83, 9.39, 9.39, 8.94, 8.05, 7.15, 7.15, 7.6, 8.05, 8.49, 8.49, 8.49, 8.49, 8.05, 7.6, 6.26, 5.36, 4.92, 3.13, 0.45, 0.0, -0.89, -1.34, -1.79, -1.34, -0.89, -0.45, 0.0, 0.0, 0.0, 0.0, 0.89, 1.79, 2.24, 2.68, 2.68, 2.24, 1.79, 8.49, 8.49, 8.49, 8.94, 8.94, 8.94, 9.39, 9.39, 9.39, 8.49, 7.15, 5.81, 5.36, 6.26, 6.71, 6.71, 7.15, 7.6, 7.15, 6.71, 7.15, 7.6, 7.6, 6.71, 4.02, 0.89, -0.45, 0.0, 0.45, 0.0, 0.0, 0.89, 1.79, 3.13, 3.13, 2.68, 0.89, 0.0, -0.45, -0.89, 0.0, 0.89, 1.79, 2.68, 3.58, 4.47, 5.36, 6.26, 6.71, 6.26, 6.71, 7.6, 8.05, 8.49, 8.94, 9.39, 9.83, 9.83, 9.83, 10.28, 9.39, 8.94, 8.05, 6.71, 5.81, 6.26, 7.6, 8.05, 8.05, 8.05, 8.49, 8.49, 8.49, 8.49, 8.05, 7.15, 6.26, 4.92, 2.68, 0.89, 0.0, -0.89, -1.79, -2.24, -2.24, -1.79, -1.34, -0.89, -0.89, -0.45, 0.0, 0.45, 0.89, 1.79, 1.79, 1.79, 1.79, 1.79, 8.05, 8.49, 8.49, 8.94, 8.94, 8.94, 8.94, 9.39, 8.94, 8.49, 7.15, 5.36, 4.92, 5.36, 6.26, 6.71, 7.15, 7.15, 7.15, 6.26, 5.81, 6.71, 8.05, 8.49, 8.05, 5.81, 2.68, 1.79, 2.24, 2.24, 1.34, 0.89, 1.34, 2.24, 3.13, 3.13, 0.45, -0.89, 0.0, 0.45, 0.89, 1.79, 2.68, 3.58, 4.02, 4.92, 4.92, 5.81, 6.71, 6.71, 7.15, 7.6, 8.05, 8.49, 8.94, 8.94, 9.39, 9.39, 9.83, 9.83, 8.94, 7.15, 4.92, 4.02, 4.92, 6.26, 7.6, 7.6, 7.6, 8.05, 8.49, 8.94, 8.94, 8.94, 8.49, 7.6, 6.26, 4.92, 2.68, 1.34, 1.34, 0.0, -0.89, -2.24, -3.13, -2.68, -2.24, -1.79, -1.79, -1.34, -0.45, 0.0, 0.0, 0.89, 1.34, 1.34, 1.34, 1.79, 8.05, 8.49, 8.49, 8.49, 8.94, 8.94, 8.94, 8.94, 8.94, 8.49, 7.15, 6.71, 6.26, 6.26, 5.81, 5.81, 6.26, 6.26, 5.36, 4.47, 4.47, 5.36, 6.26, 6.71, 6.71, 5.36, 3.58, 2.24, 2.68, 3.58, 1.34, 0.0, 0.0, 0.89, 2.24, 2.68, 1.79, 0.89, 1.79, 3.58, 4.02, 4.47, 4.92, 4.92, 5.36, 5.36, 5.36, 5.81, 6.26, 7.15, 7.15, 7.6, 7.6, 7.6, 8.05, 8.05, 8.49, 8.49, 8.94, 8.49, 6.26, 3.58, 2.68, 3.58, 4.92, 5.81, 6.71, 7.15, 7.6, 8.05, 8.49, 8.94, 9.39, 9.39, 8.49, 7.6, 6.26, 4.02, 2.24, 1.79, 2.24, 2.68, 0.45, -0.89, -2.68, -3.13, -2.68, -2.24, -2.24, -1.79, -1.34, -0.89, -0.45, 0.0, 0.89, 0.89, 1.34, 1.79, 8.05, 8.05, 8.49, 8.49, 8.94, 8.94, 8.94, 8.94, 8.94, 8.49, 7.6, 7.6, 7.6, 7.6, 6.71, 6.26, 5.81, 5.36, 4.92, 4.92, 4.92, 4.92, 4.92, 4.92, 4.47, 2.68, 0.45, 0.45, 1.79, 3.13, 2.24, 0.45, 0.0, 0.89, 1.79, 2.24, 2.68, 2.68, 3.58, 4.92, 5.36, 5.36, 5.36, 4.92, 4.47, 4.92, 4.92, 5.36, 5.36, 5.81, 6.26, 6.26, 6.26, 5.81, 5.36, 5.36, 5.36, 5.81, 5.81, 3.58, 1.34, 1.34, 2.68, 3.58, 4.47, 4.92, 5.36, 5.81, 6.71, 7.6, 8.49, 8.94, 9.39, 8.94, 8.05, 7.15, 5.36, 2.68, 1.79, 2.24, 3.13, 3.58, 3.58, 0.89, -0.89, -2.24, -2.24, -2.24, -2.24, -1.79, -1.34, -0.89, -0.45, 0.0, 0.45, 0.89, 0.89, 1.34, 8.05, 8.05, 8.49, 8.49, 8.94, 8.94, 8.94, 8.94, 8.49, 8.49, 8.05, 7.6, 8.05, 8.49, 8.49, 8.49, 7.6, 6.26, 6.26, 6.71, 7.6, 8.05, 7.6, 6.26, 4.92, 2.68, 0.0, -0.89, 0.0, 0.89, 1.79, 1.79, 1.79, 2.24, 2.68, 3.58, 4.02, 4.02, 4.47, 4.92, 5.81, 5.81, 5.81, 4.92, 4.47, 4.02, 3.58, 3.58, 4.02, 4.02, 4.47, 4.47, 4.02, 3.13, 2.24, 2.24, 3.13, 3.13, 0.89, -0.89, 0.0, 1.79, 3.13, 3.13, 3.13, 3.13, 4.02, 4.92, 5.81, 6.26, 6.26, 6.26, 6.71, 6.26, 6.26, 5.36, 3.13, 1.79, 2.24, 3.58, 4.02, 4.02, 4.47, 3.13, 1.79, 0.0, -0.45, -0.89, -0.89, -0.45, -0.45, -0.45, 0.0, 0.0, 0.45, 0.89, 0.89, 1.34, 8.05, 8.05, 8.05, 8.49, 8.94, 8.94, 8.94, 8.94, 8.49, 8.49, 8.05, 8.05, 8.05, 8.49, 9.39, 9.83, 9.39, 8.94, 8.49, 8.94, 9.39, 10.28, 10.73, 10.73, 10.73, 8.94, 4.47, 0.45, -0.45, 0.0, 1.34, 2.24, 2.68, 3.13, 3.58, 4.02, 4.47, 4.47, 4.47, 4.92, 5.36, 5.81, 5.81, 5.36, 4.02, 3.13, 2.68, 2.68, 3.13, 3.13, 3.13, 3.13, 2.24, 1.34, 0.89, 1.79, 2.68, 3.13, 0.89, -1.34, -0.45, 1.79, 3.13, 2.68, 2.24, 2.24, 3.13, 4.02, 4.02, 4.02, 2.68, 1.79, 2.24, 3.58, 3.58, 2.68, 1.79, 2.68, 4.02, 4.47, 4.92, 4.92, 4.92, 5.36, 4.02, 3.13, 1.34, 0.45, 0.45, 0.45, 0.45, 0.45, 0.45, 0.45, 0.89, 1.34, 1.34, 1.34, 8.05, 8.05, 8.05, 8.49, 8.94, 8.94, 8.94, 8.94, 8.49, 8.49, 8.05, 8.05, 8.05, 8.49, 8.94, 9.83, 10.28, 10.28, 10.28, 10.73, 10.73, 11.18, 11.62, 12.07, 12.07, 11.62, 9.39, 4.92, 1.79, 1.34, 1.79, 2.68, 2.68, 3.13, 3.58, 4.02, 4.02, 4.47, 4.47, 4.92, 5.36, 5.36, 5.36, 4.47, 3.58, 2.24, 2.24, 2.24, 2.68, 2.68, 2.68, 2.24, 1.79, 0.89, 1.34, 1.79, 2.24, 4.02, 4.02, 0.89, 0.0, 1.34, 2.68, 2.68, 2.24, 2.24, 2.24, 2.68, 3.58, 4.47, 3.13, 0.45, 0.0, 0.45, 0.89, 1.34, 3.13, 4.92, 5.36, 5.81, 5.36, 5.36, 5.81, 6.26, 5.81, 4.92, 2.68, 1.34, 0.89, 0.89, 0.89, 0.89, 0.89, 0.89, 1.34, 1.79, 2.24, 2.24, 7.6, 8.05, 8.05, 8.49, 8.49, 8.94, 8.94, 8.94, 8.94, 8.49, 8.49, 8.05, 8.05, 8.49, 8.94, 9.39, 10.28, 10.73, 11.18, 11.18, 11.62, 11.62, 12.07, 12.07, 12.07, 12.07, 10.73, 7.6, 4.92, 4.02, 4.02, 3.58, 3.58, 3.13, 3.13, 3.58, 3.58, 4.02, 4.47, 4.92, 5.36, 5.36, 4.92, 4.02, 3.13, 2.24, 1.79, 1.79, 2.24, 2.24, 2.68, 2.68, 2.24, 1.79, 1.79, 2.24, 2.68, 4.92, 6.71, 5.36, 2.68, 2.24, 3.13, 3.13, 3.13, 2.68, 2.24, 2.68, 3.58, 4.47, 4.02, 0.89, -0.89, -0.89, 0.45, 3.13, 5.36, 6.71, 7.15, 7.15, 6.71, 6.26, 6.26, 6.26, 6.71, 5.81, 3.58, 1.79, 0.89, 1.34, 1.34, 0.89, 1.34, 1.34, 1.79, 2.68, 3.13, 3.13, 7.6, 8.05, 8.05, 8.05, 8.49, 8.94, 8.94, 8.94, 8.94, 8.49, 8.49, 8.05, 8.49, 8.49, 8.49, 8.94, 9.83, 10.28, 11.18, 11.62, 11.62, 12.07, 12.07, 12.07, 12.07, 12.07, 11.18, 9.39, 7.6, 6.71, 5.81, 5.36, 4.92, 4.47, 4.02, 3.58, 4.02, 4.47, 4.47, 4.92, 4.92, 5.36, 4.47, 3.58, 2.68, 2.24, 1.79, 1.79, 2.24, 2.68, 2.68, 2.68, 2.68, 3.13, 3.13, 3.58, 4.02, 5.36, 6.26, 6.26, 4.92, 4.02, 4.02, 4.02, 4.02, 3.58, 3.58, 3.13, 4.02, 4.02, 2.68, 0.0, -1.79, -0.45, 2.68, 5.36, 7.15, 8.49, 8.49, 8.05, 7.6, 6.71, 6.26, 6.26, 5.81, 4.47, 3.58, 1.79, 1.34, 1.34, 1.79, 1.34, 1.34, 1.79, 2.24, 3.13, 3.58, 3.58, 7.6, 8.05, 8.05, 8.05, 8.49, 8.94, 8.94, 9.39, 8.94, 8.94, 8.49, 8.49, 8.49, 8.49, 8.49, 8.94, 9.39, 9.83, 10.73, 11.18, 11.62, 11.62, 12.07, 12.07, 11.62, 11.62, 11.18, 10.73, 9.83, 8.49, 7.6, 7.15, 6.26, 5.36, 4.47, 4.02, 4.02, 4.02, 4.02, 4.02, 4.02, 3.58, 3.13, 3.13, 2.68, 2.24, 2.24, 2.68, 3.13, 3.58, 3.58, 3.58, 3.58, 3.58, 4.02, 4.47, 4.92, 5.36, 5.81, 5.81, 5.36, 4.92, 4.92, 4.92, 4.92, 4.92, 4.02, 3.13, 2.68, 2.68, 1.79, 0.0, -0.45, 2.24, 5.36, 7.15, 8.94, 9.83, 9.83, 8.94, 8.05, 6.71, 6.26, 5.81, 4.92, 4.02, 3.13, 1.79, 1.79, 1.79, 1.79, 1.34, 1.34, 1.79, 2.68, 3.13, 4.02, 4.02, 7.6, 7.6, 8.05, 8.05, 8.49, 8.49, 8.94, 8.94, 8.94, 8.94, 8.49, 8.49, 8.05, 8.49, 8.49, 8.49, 8.94, 9.83, 10.28, 10.73, 11.18, 11.62, 11.62, 11.18, 11.18, 11.62, 11.18, 10.73, 10.28, 8.94, 8.05, 7.6, 6.71, 6.26, 5.36, 4.47, 4.02, 4.02, 4.02, 4.02, 3.58, 3.13, 2.68, 3.13, 3.13, 3.13, 3.13, 3.58, 3.58, 4.02, 4.02, 4.02, 4.02, 4.02, 4.02, 4.47, 4.92, 4.92, 5.36, 5.36, 5.36, 5.36, 5.36, 5.36, 5.36, 5.36, 4.47, 3.58, 3.13, 3.58, 4.92, 5.81, 6.71, 8.05, 8.49, 9.39, 9.83, 10.73, 10.28, 9.39, 8.05, 7.15, 6.26, 4.92, 4.02, 3.58, 3.13, 2.24, 1.79, 1.79, 1.79, 1.79, 1.79, 2.24, 3.13, 3.58, 4.47, 4.47, 7.6, 7.6, 8.05, 8.05, 8.49, 8.49, 8.94, 8.94, 8.94, 8.94, 8.94, 8.49, 8.05, 8.05, 8.05, 8.05, 8.49, 8.94, 9.39, 10.28, 11.18, 12.07, 11.62, 10.28, 9.39, 8.94, 8.94, 8.49, 7.6, 6.71, 5.81, 5.36, 5.36, 5.36, 4.92, 4.47, 4.47, 4.47, 4.47, 4.47, 4.47, 4.02, 3.58, 3.58, 3.58, 3.58, 3.58, 4.02, 4.02, 4.47, 4.47, 4.47, 4.02, 4.02, 4.02, 4.47, 4.47, 4.92, 5.36, 5.36, 5.81, 5.81, 5.81, 6.26, 6.26, 5.81, 5.36, 4.92, 5.36, 5.81, 7.6, 10.28, 12.52, 12.52, 12.07, 11.18, 10.73, 10.73, 10.28, 9.83, 7.6, 6.26, 5.36, 4.92, 4.47, 4.02, 4.02, 3.58, 2.24, 2.24, 2.24, 1.79, 1.79, 2.24, 3.58, 4.02, 4.47, 4.47, 7.6, 7.6, 8.05, 8.05, 8.05, 8.49, 8.49, 8.94, 8.94, 8.94, 8.94, 8.49, 8.49, 8.05, 8.05, 8.49, 8.49, 8.05, 7.6, 8.49, 10.28, 11.62, 11.18, 9.83, 8.94, 8.49, 8.05, 6.71, 5.81, 4.47, 3.13, 2.24, 2.68, 3.13, 3.58, 3.58, 4.02, 4.47, 4.92, 5.36, 5.81, 5.81, 5.36, 4.92, 4.47, 4.02, 4.02, 4.02, 4.47, 4.47, 4.47, 4.02, 3.58, 3.58, 4.02, 4.47, 4.92, 5.36, 5.81, 5.81, 5.81, 5.81, 5.81, 5.81, 5.81, 5.36, 5.36, 5.36, 6.26, 7.15, 8.49, 10.73, 12.52, 13.41, 13.41, 12.52, 11.62, 10.28, 8.94, 8.49, 7.15, 5.81, 4.92, 4.47, 4.47, 4.47, 4.47, 4.47, 3.13, 2.24, 1.79, 1.79, 2.24, 2.68, 4.02, 4.47, 4.92, 4.92, 7.6, 7.6, 8.05, 8.05, 8.05, 8.49, 8.49, 8.94, 8.94, 8.94, 8.94, 8.49, 8.49, 8.05, 8.05, 8.49, 8.49, 7.6, 7.6, 8.05, 9.39, 10.28, 9.83, 9.83, 9.39, 9.39, 8.94, 7.6, 6.26, 5.36, 4.02, 2.24, 1.34, 1.34, 1.79, 2.24, 3.13, 3.58, 4.47, 5.36, 5.36, 5.81, 5.36, 4.92, 4.02, 3.58, 3.58, 4.02, 4.47, 4.47, 4.02, 3.58, 3.13, 3.13, 3.58, 4.02, 4.92, 5.36, 5.36, 5.36, 5.36, 5.36, 5.36, 5.36, 5.36, 5.36, 5.36, 5.36, 5.36, 5.81, 7.15, 9.39, 11.62, 12.07, 12.07, 11.62, 9.83, 8.49, 7.6, 6.71, 5.81, 4.92, 4.47, 4.47, 4.02, 4.02, 4.02, 4.47, 4.47, 3.13, 2.24, 2.24, 2.68, 3.58, 4.47, 4.92, 4.92, 4.92, 7.6, 7.6, 8.05, 8.05, 8.05, 8.49, 8.49, 8.49, 8.94, 8.94, 8.94, 8.94, 8.49, 8.49, 8.05, 8.49, 8.49, 8.05, 8.05, 8.94, 9.83, 9.83, 8.94, 8.49, 8.94, 9.39, 9.39, 8.94, 8.05, 7.6, 7.15, 5.36, 3.58, 1.79, 1.34, 1.79, 2.68, 3.13, 4.02, 4.47, 4.92, 4.92, 4.92, 4.47, 4.02, 4.02, 4.02, 4.02, 4.02, 4.02, 3.13, 2.68, 2.68, 3.13, 3.13, 3.13, 4.02, 4.92, 4.92, 4.92, 5.36, 5.81, 5.81, 5.81, 5.81, 5.36, 4.47, 3.58, 3.58, 3.58, 4.47, 6.26, 7.15, 4.47, 4.02, 4.47, 4.47, 4.02, 3.58, 3.13, 3.13, 3.13, 3.58, 3.58, 3.58, 3.58, 4.02, 4.02, 4.47, 3.58, 2.68, 2.68, 3.13, 4.02, 4.47, 4.47, 4.47, 4.47, 7.6, 7.6, 7.6, 8.05, 8.05, 8.49, 8.49, 8.49, 8.49, 8.94, 8.94, 8.94, 8.49, 8.49, 8.49, 8.49, 8.49, 8.49, 8.94, 9.39, 10.28, 9.83, 8.94, 8.05, 8.05, 8.05, 8.49, 8.94, 8.94, 8.49, 8.49, 8.05, 6.71, 4.47, 2.68, 2.24, 2.68, 3.13, 4.02, 4.47, 4.47, 4.47, 4.47, 4.47, 4.02, 3.58, 4.02, 4.02, 3.58, 3.13, 2.68, 2.68, 2.68, 2.68, 2.68, 2.68, 3.13, 4.02, 4.92, 4.92, 4.92, 4.92, 4.92, 4.92, 4.92, 4.02, 3.13, 2.68, 2.68, 3.13, 3.13, 3.58, -0.89, -2.68, -2.24, -1.79, -1.34, 0.0, 0.0, 0.45, 0.89, 1.79, 2.24, 2.68, 3.13, 3.58, 3.58, 4.02, 4.02, 4.02, 3.13, 3.13, 4.02, 4.47, 4.47, 4.47, 4.02, 4.02, 7.6, 7.6, 7.6, 8.05, 8.05, 8.49, 8.49, 8.49, 8.49, 8.49, 8.49, 8.94, 8.49, 8.49, 8.49, 8.49, 8.49, 8.49, 8.94, 9.39, 9.83, 10.28, 9.83, 8.94, 8.49, 8.05, 8.05, 8.05, 8.05, 8.49, 8.49, 8.49, 8.05, 7.15, 5.81, 4.92, 4.47, 4.02, 4.47, 4.47, 4.47, 4.47, 4.47, 4.47, 4.02, 3.58, 4.02, 4.02, 3.58, 3.13, 3.13, 3.13, 3.13, 2.68, 2.24, 2.24, 2.68, 3.13, 4.02, 4.47, 4.47, 4.47, 4.47, 4.02, 3.58, 3.13, 2.68, 2.68, 3.13, 3.58, 3.58, 4.92, 3.58, 1.34, 0.45, 0.0, 0.0, 0.0, 0.0, 0.0, 0.0, 0.0, 0.45, 1.34, 2.24, 2.68, 3.13, 3.58, 3.58, 4.02, 4.02, 4.02, 4.47, 4.47, 4.47, 4.02, 4.02, 4.02, 7.6, 7.6, 7.6, 8.05, 8.05, 8.05, 8.49, 8.49, 8.49, 8.49, 8.49, 8.49, 8.49, 8.49, 8.49, 8.49, 8.49, 8.49, 8.94, 9.39, 9.83, 10.28, 10.28, 9.83, 9.39, 8.94, 8.49, 8.05, 7.6, 7.6, 8.05, 8.05, 8.49, 8.05, 7.6, 7.15, 6.26, 5.81, 5.36, 5.36, 4.92, 4.92, 4.47, 4.47, 4.02, 4.02, 4.47, 4.92, 5.36, 5.36, 4.47, 3.58, 2.68, 2.24, 2.24, 2.24, 2.68, 2.68, 3.13, 4.02, 4.92, 4.92, 4.47, 4.02, 3.58, 2.68, 2.68, 3.13, 4.02, 4.47, 5.36, 6.71, 8.49, 9.39, 9.39, 8.05, 5.36, 1.79, 0.0, -0.45, -0.89, -0.45, 0.0, 0.45, 0.89, 1.79, 2.24, 2.68, 3.13, 4.02, 4.92, 4.92, 4.92, 4.47, 4.02, 4.02, 4.02, 4.02, 7.15, 7.15, 7.6, 7.6, 8.05, 8.05, 8.05, 8.49, 8.49, 8.49, 8.49, 8.49, 8.49, 8.49, 8.49, 8.49, 8.49, 8.94, 8.94, 9.39, 9.83, 9.83, 9.83, 9.83, 9.83, 9.39, 8.94, 8.49, 8.05, 8.05, 7.6, 8.05, 8.05, 8.05, 8.05, 8.05, 7.6, 7.15, 6.71, 5.81, 5.36, 4.92, 4.92, 4.47, 4.47, 4.47, 4.92, 4.92, 5.36, 5.36, 4.92, 4.02, 2.68, 1.79, 1.79, 2.24, 2.68, 2.68, 2.68, 3.13, 4.47, 5.36, 5.36, 4.47, 3.13, 2.68, 2.68, 3.58, 4.47, 4.47, 4.92, 5.81, 8.05, 10.28, 10.73, 10.28, 8.05, 2.68, -0.45, -0.89, -1.34, -1.34, -0.89, -0.45, 0.0, 0.89, 1.79, 2.24, 3.13, 3.58, 4.47, 5.36, 4.92, 4.47, 4.02, 4.02, 4.02, 4.02, 7.15, 7.15, 7.6, 7.6, 8.05, 8.05, 8.05, 8.05, 8.49, 8.49, 8.49, 8.49, 8.49, 8.49, 8.49, 8.94, 8.94, 8.94, 8.94, 9.39, 9.39, 9.83, 9.83, 9.83, 9.83, 9.83, 9.39, 9.39, 8.94, 8.49, 8.05, 8.49, 8.49, 8.05, 8.05, 7.6, 7.6, 7.6, 7.15, 6.71, 6.26, 5.81, 5.36, 4.92, 4.92, 4.92, 4.92, 5.36, 5.36, 4.92, 4.47, 3.58, 2.68, 1.79, 1.79, 2.24, 2.68, 2.68, 2.24, 2.68, 4.02, 5.36, 5.81, 4.47, 3.13, 2.68, 3.13, 4.47, 4.92, 5.36, 5.81, 6.26, 7.15, 8.05, 8.94, 9.39, 7.15, 1.79, -1.34, -1.79, -1.79, -1.79, -2.24, -1.79, -0.89, 0.0, 0.89, 2.24, 2.68, 3.58, 4.02, 5.36, 5.36, 4.47, 4.47, 4.02, 4.02, 4.02, 7.15, 7.15, 7.6, 7.6, 8.05, 8.05, 8.05, 8.05, 8.05, 8.49, 8.49, 8.49, 8.49, 8.49, 8.49, 8.94, 8.94, 8.94, 8.94, 8.94, 9.39, 9.39, 9.39, 9.39, 9.39, 9.39, 9.39, 9.39, 9.39, 9.39, 8.94, 8.94, 8.49, 8.49, 8.05, 8.05, 7.6, 7.6, 7.15, 6.71, 6.26, 5.81, 5.36, 5.36, 5.36, 5.36, 5.81, 5.81, 5.36, 4.92, 4.02, 2.68, 2.24, 2.24, 1.79, 2.24, 2.24, 2.24, 2.24, 2.68, 3.58, 4.92, 5.81, 4.92, 3.58, 3.58, 4.47, 4.92, 5.36, 5.36, 6.26, 6.71, 7.15, 7.15, 7.15, 8.05, 6.71, 1.34, -1.79, -2.24, -2.68, -3.58, -3.58, -2.68, -1.34, -0.45, 0.45, 1.34, 2.68, 3.13, 4.02, 4.92, 5.81, 5.36, 4.47, 4.47, 4.02, 4.02, 7.15, 7.15, 7.6, 7.6, 8.05, 8.05, 8.05, 8.05, 8.05, 8.05, 8.49, 8.49, 8.49, 8.49, 8.49, 8.94, 8.94, 8.94, 8.94, 8.94, 9.39, 9.39, 9.39, 9.39, 9.39, 8.94, 8.94, 8.94, 9.39, 9.39, 9.39, 8.94, 8.94, 8.94, 8.49, 8.49, 8.05, 7.6, 7.6, 6.71, 6.26, 5.81, 5.36, 4.92, 4.92, 5.36, 5.81, 5.36, 4.02, 4.02, 3.13, 2.68, 2.68, 2.68, 2.24, 1.79, 1.79, 1.79, 2.24, 2.68, 3.58, 4.47, 4.92, 4.02, 4.02, 4.47, 4.92, 5.36, 4.92, 4.92, 5.81, 6.71, 7.15, 7.15, 7.6, 8.49, 8.05, 4.92, 0.89, -0.89, -2.68, -4.47, -4.92, -3.58, -1.79, -0.45, 0.0, 0.89, 2.24, 3.13, 4.02, 4.92, 5.81, 5.36, 4.92, 4.47, 4.02, 4.02, 7.15, 7.15, 7.15, 7.6, 7.6, 8.05, 8.05, 8.05, 8.05, 8.05, 8.05, 8.49, 8.49, 8.49, 8.49, 8.94, 8.94, 8.94, 8.94, 8.94, 9.39, 9.39, 8.94, 8.94, 8.94, 8.94, 8.94, 8.94, 8.94, 9.39, 9.39, 9.39, 8.94, 8.94, 8.94, 8.49, 8.49, 8.05, 7.6, 7.15, 6.71, 6.26, 5.36, 4.92, 4.47, 4.92, 5.36, 4.02, 2.68, 2.68, 3.13, 3.58, 3.13, 2.68, 2.68, 2.24, 1.79, 2.24, 2.24, 2.68, 3.58, 4.47, 4.47, 4.02, 4.47, 4.02, 4.02, 4.02, 4.02, 4.02, 4.47, 5.81, 7.15, 8.05, 8.49, 8.94, 9.39, 8.94, 8.05, 6.26, 4.02, 0.45, -1.79, -2.68, -1.79, -0.45, 0.0, 0.45, 1.79, 3.13, 4.02, 4.92, 5.81, 5.36, 4.92, 4.47, 4.02, 4.02, 7.15, 7.15, 7.15, 7.6, 7.6, 8.05, 8.05, 8.05, 8.05, 8.05, 8.05, 8.05, 8.49, 8.49, 8.49, 8.49, 8.94, 8.94, 8.94, 8.94, 8.94, 8.94, 8.94, 8.94, 8.94, 8.94, 8.49, 8.49, 8.94, 8.94, 9.39, 9.39, 9.39, 9.39, 8.94, 8.49, 8.49, 8.05, 8.05, 7.6, 6.71, 6.26, 5.81, 4.92, 4.47, 4.92, 5.36, 4.92, 4.47, 4.47, 4.47, 4.47, 4.02, 3.13, 2.68, 2.68, 2.24, 2.24, 2.24, 2.68, 3.13, 4.02, 4.02, 4.47, 4.47, 4.47, 3.58, 3.13, 3.58, 3.58, 3.58, 4.02, 5.81, 8.49, 9.83, 9.83, 9.39, 9.39, 9.83, 9.83, 9.83, 8.49, 5.36, 0.89, -0.45, -0.45, 0.0, 0.45, 1.79, 3.13, 4.02, 4.92, 5.36, 5.36, 4.92, 4.92, 4.02, 4.02, 7.15, 7.15, 7.15, 7.6, 7.6, 8.05, 8.05, 8.05, 8.05, 8.05, 8.05, 8.05, 8.05, 8.49, 8.49, 8.49, 8.94, 8.94, 8.94, 8.94, 8.94, 8.94, 8.94, 8.94, 8.94, 8.49, 8.49, 8.49, 8.05, 8.49, 8.94, 9.39, 9.39, 9.39, 8.94, 8.94, 8.49, 8.49, 8.05, 7.6, 7.15, 6.71, 6.26, 5.81, 5.36, 5.36, 5.81, 5.81, 5.81, 5.81, 5.36, 4.47, 4.02, 3.58, 3.58, 2.68, 2.68, 2.24, 2.24, 2.68, 3.13, 3.58, 4.47, 4.92, 4.92, 4.47, 4.02, 3.13, 3.58, 4.47, 4.47, 4.47, 4.47, 7.15, 10.28, 10.73, 8.49, 7.15, 7.6, 8.49, 9.39, 9.83, 9.83, 6.71, 1.79, 0.0, 0.0, 0.89, 1.79, 3.13, 4.02, 4.47, 4.92, 4.92, 4.92, 4.47, 3.13, 3.13, 6.71, 6.71, 7.15, 7.15, 7.6, 7.6, 8.05, 8.05, 8.05, 8.05, 8.05, 8.05, 8.05, 8.05, 8.49, 8.49, 8.49, 8.49, 8.94, 8.94, 8.94, 8.94, 8.94, 8.94, 8.49, 8.49, 8.49, 8.05, 8.05, 8.05, 8.05, 8.49, 8.94, 8.94, 8.94, 8.94, 8.49, 8.49, 8.05, 7.6, 7.15, 6.71, 6.71, 6.26, 5.81, 5.36, 5.81, 5.81, 5.81, 5.81, 5.36, 4.92, 4.47, 4.02, 3.58, 3.13, 3.13, 2.68, 2.24, 2.68, 2.68, 3.58, 4.02, 4.02, 4.47, 4.47, 4.02, 4.02, 4.02, 4.92, 5.81, 5.36, 5.36, 7.15, 10.73, 12.07, 9.83, 7.6, 7.6, 8.94, 10.28, 11.18, 11.62, 9.83, 5.36, 1.34, 0.45, 0.89, 1.79, 2.68, 3.58, 4.47, 4.47, 4.92, 4.47, 4.02, 2.24, 2.24, 6.71, 6.71, 7.15, 7.15, 7.15, 7.6, 7.6, 8.05, 8.05, 8.05, 8.05, 8.05, 8.05, 8.05, 8.49, 8.49, 8.49, 8.49, 8.49, 8.49, 8.94, 8.94, 8.94, 8.94, 8.49, 8.49, 8.49, 8.49, 8.49, 8.49, 8.49, 8.49, 8.49, 8.49, 8.49, 8.49, 8.49, 8.49, 8.05, 7.6, 7.15, 7.15, 6.71, 6.26, 6.26, 5.81, 5.81, 5.81, 5.81, 5.81, 5.36, 4.92, 4.47, 4.02, 3.58, 3.58, 3.13, 3.13, 2.68, 2.68, 3.13, 3.13, 3.13, 3.58, 4.02, 4.02, 4.02, 4.02, 4.02, 4.47, 5.36, 5.36, 5.81, 7.6, 10.73, 12.52, 12.07, 10.73, 10.73, 11.18, 12.07, 12.07, 12.07, 10.73, 7.15, 2.68, 0.45, 0.45, 1.79, 2.68, 3.58, 4.02, 4.47, 4.47, 3.13, 3.13, 1.79, 1.79, 6.71, 6.71, 6.71, 7.15, 7.15, 7.15, 7.6, 8.05, 8.05, 8.05, 8.05, 8.05, 8.05, 8.05, 8.05, 8.49, 8.49, 8.49, 8.49, 8.49, 8.49, 8.49, 8.49, 8.49, 8.49, 8.49, 8.49, 8.49, 8.49, 8.94, 8.94, 8.94, 8.49, 8.49, 8.05, 8.05, 8.05, 8.05, 8.05, 7.6, 7.15, 7.15, 6.71, 6.71, 6.26, 6.26, 6.26, 6.26, 5.81, 5.81, 5.36, 4.92, 4.47, 4.02, 3.58, 3.58, 3.13, 3.13, 3.13, 3.13, 2.68, 2.68, 3.13, 3.58, 3.58, 3.58, 4.02, 4.02, 4.47, 4.92, 4.92, 5.36, 6.71, 8.49, 10.28, 11.62, 12.52, 12.52, 12.52, 12.07, 12.07, 11.62, 10.73, 9.83, 7.15, 2.68, 0.45, 0.45, 1.79, 2.68, 3.58, 4.02, 4.02, 3.58, 2.24, 1.34, 1.34, 1.34, 6.71, 6.71, 6.71, 6.71, 7.15, 7.15, 7.6, 7.6, 8.05, 8.05, 8.05, 8.05, 8.05, 8.05, 8.05, 8.49, 8.49, 8.49, 8.49, 8.49, 8.49, 8.49, 8.49, 8.49, 8.49, 8.49, 8.49, 8.49, 8.49, 8.49, 8.94, 8.94, 8.94, 8.49, 8.49, 8.05, 8.05, 8.05, 7.6, 7.15, 7.15, 6.71, 6.71, 6.71, 6.26, 6.26, 6.26, 6.26, 5.81, 5.81, 5.36, 4.92, 4.47, 4.02, 3.58, 3.58, 3.58, 3.58, 3.58, 3.13, 3.13, 3.13, 3.13, 3.58, 4.47, 4.47, 4.47, 4.92, 4.92, 4.92, 4.47, 4.92, 6.71, 8.94, 10.28, 10.28, 10.73, 11.62, 12.07, 12.07, 11.62, 10.28, 8.94, 8.49, 6.26, 2.68, 0.45, 0.89, 1.79, 3.13, 4.02, 4.02, 3.58, 2.68, 1.79, 1.34, 1.34, 1.34, 6.71, 6.71, 6.71, 6.71, 7.15, 7.15, 7.15, 7.6, 7.6, 8.05, 8.05, 8.05, 8.05, 8.05, 8.05, 8.05, 8.05, 8.05, 8.05, 8.05, 8.05, 8.49, 8.49, 8.49, 8.49, 8.49, 8.49, 8.49, 8.49, 8.49, 8.94, 8.94, 8.94, 8.94, 8.49, 8.49, 8.05, 7.6, 7.6, 7.15, 6.71, 6.71, 6.26, 6.26, 6.26, 6.26, 6.26, 6.26, 5.81, 5.81, 5.36, 4.92, 4.47, 4.02, 4.02, 4.02, 4.02, 4.02, 3.58, 3.58, 3.13, 3.13, 3.13, 3.58, 4.47, 4.47, 4.47, 4.92, 4.92, 4.92, 4.92, 4.92, 5.81, 8.49, 10.28, 9.83, 9.39, 10.28, 11.18, 12.07, 11.18, 9.83, 8.49, 8.05, 7.15, 4.92, 3.13, 2.24, 2.68, 3.58, 4.02, 4.02, 3.58, 2.24, 1.79, 1.79, 2.24, 1.79, 6.71, 6.71, 6.71, 6.71, 6.71, 7.15, 7.15, 7.15, 7.6, 7.6, 8.05, 8.05, 8.05, 8.05, 8.05, 8.05, 8.05, 8.05, 8.05, 8.05, 8.05, 8.05, 8.05, 8.49, 8.49, 8.49, 8.49, 8.49, 8.49, 8.49, 8.94, 8.94, 8.94, 8.94, 8.49, 8.49, 8.49, 8.05, 7.6, 7.15, 6.71, 6.26, 5.81, 5.81, 6.26, 6.71, 6.26, 6.26, 5.81, 5.36, 4.92, 4.47, 4.47, 4.02, 4.47, 4.47, 4.47, 4.47, 4.02, 4.02, 3.58, 3.58, 3.13, 3.58, 4.02, 4.47, 4.47, 4.47, 4.47, 4.92, 4.47, 4.02, 4.92, 8.05, 10.73, 10.28, 8.94, 9.83, 11.18, 12.07, 11.18, 10.28, 8.94, 8.05, 7.6, 6.26, 5.36, 4.47, 4.02, 4.02, 4.02, 4.02, 3.13, 2.24, 1.79, 2.24, 2.24, 2.24, 6.71, 6.71, 6.71, 6.71, 6.71, 6.71, 7.15, 7.15, 7.15, 7.6, 7.6, 7.6, 8.05, 8.05, 8.05, 8.05, 8.05, 8.05, 8.05, 8.05, 8.05, 8.05, 8.05, 8.05, 8.49, 8.49, 8.49, 8.49, 8.49, 8.49, 8.94, 8.49, 8.49, 8.49, 8.49, 8.49, 8.49, 8.05, 8.05, 7.6, 7.15, 6.26, 5.81, 5.81, 6.26, 6.71, 6.71, 5.81, 5.36, 4.92, 4.92, 4.47, 4.47, 4.47, 4.92, 4.92, 4.92, 4.47, 4.47, 4.02, 4.02, 3.58, 3.58, 3.58, 4.02, 4.02, 4.47, 4.47, 4.92, 4.92, 4.47, 4.02, 4.47, 5.81, 8.49, 9.83, 8.94, 8.05, 8.05, 8.94, 8.94, 8.49, 8.05, 7.6, 7.15, 6.71, 6.26, 5.81, 4.92, 4.47, 4.47, 4.02, 2.68, 1.79, 2.24, 2.24, 2.24, 2.24, 6.26, 6.26, 6.71, 6.71, 6.71, 6.71, 7.15, 7.15, 7.15, 7.15, 7.6, 7.6, 8.05, 8.05, 8.05, 8.05, 8.05, 8.05, 8.05, 8.05, 8.05, 8.05, 8.05, 8.05, 8.05, 8.49, 8.49, 8.49, 8.49, 8.49, 8.49, 8.49, 8.49, 8.49, 8.49, 8.49, 8.05, 8.05, 8.05, 7.6, 7.15, 6.71, 6.26, 5.81, 6.26, 6.71, 6.26, 5.81, 5.36, 4.92, 4.92, 4.92, 4.92, 5.36, 5.36, 5.36, 4.92, 4.92, 4.47, 4.47, 4.02, 3.58, 3.58, 3.58, 4.02, 4.02, 4.47, 4.47, 4.47, 4.47, 4.47, 4.47, 4.47, 4.92, 5.81, 7.6, 8.49, 7.15, 5.81, 4.92, 5.36, 5.81, 6.71, 6.71, 7.15, 7.15, 7.15, 6.71, 6.26, 5.36, 4.47, 3.58, 2.68, 1.79, 2.24, 2.24, 2.24, 2.24, 6.26, 6.26, 6.26, 6.71, 6.71, 6.71, 6.71, 7.15, 7.15, 7.15, 7.15, 7.6, 7.6, 8.05, 8.05, 8.05, 8.05, 8.05, 8.05, 7.6, 8.05, 8.05, 8.05, 8.05, 8.05, 8.49, 8.49, 8.49, 8.49, 8.49, 8.49, 8.49, 8.49, 8.49, 8.49, 8.05, 8.05, 8.05, 8.05, 7.6, 7.6, 7.15, 6.71, 6.71, 6.71, 7.15, 7.15, 6.71, 6.26, 5.81, 5.81, 5.81, 5.81, 5.81, 5.36, 5.36, 5.36, 4.92, 4.92, 4.47, 4.47, 4.02, 4.02, 3.58, 4.02, 4.02, 4.47, 4.02, 4.02, 4.47, 4.92, 4.92, 4.92, 4.92, 4.92, 5.81, 8.05, 9.39, 8.49, 7.6, 7.15, 7.6, 8.49, 8.49, 8.94, 8.49, 8.05, 7.6, 7.15, 5.81, 4.47, 3.13, 2.24, 1.79, 2.24, 1.79, 1.79, 1.79, 6.26, 6.26, 6.26, 6.71, 6.71, 6.71, 6.71, 6.71, 6.71, 7.15, 7.15, 7.15, 7.6, 7.6, 7.6, 8.05, 8.05, 8.05, 8.05, 7.6, 7.6, 7.6, 8.05, 8.05, 8.05, 8.05, 8.49, 8.49, 8.49, 8.49, 8.49, 8.49, 8.49, 8.49, 8.05, 8.05, 8.05, 8.05, 7.6, 7.6, 7.6, 7.15, 7.15, 7.15, 7.15, 7.15, 7.15, 7.15, 7.15, 6.71, 6.71, 6.26, 6.26, 5.81, 5.81, 5.81, 5.36, 5.36, 4.92, 4.92, 4.47, 4.47, 4.02, 3.58, 4.02, 4.02, 4.47, 4.02, 4.47, 4.47, 4.92, 4.92, 5.36, 5.36, 5.81, 6.26, 8.05, 9.83, 10.73, 10.28, 10.28, 10.28, 10.28, 10.28, 9.83, 8.94, 8.94, 8.49, 7.6, 5.81, 4.02, 2.68, 1.79, 2.24, 2.24, 1.34, 1.34, 1.34, 6.26, 6.26, 6.26, 6.26, 6.71, 6.71, 6.71, 6.71, 6.71, 7.15, 7.15, 7.15, 7.15, 7.6, 7.6, 7.6, 7.6, 7.6, 7.6, 7.6, 7.6, 7.6, 8.05, 8.05, 8.05, 8.05, 8.49, 8.49, 8.49, 8.49, 8.49, 8.49, 8.49, 8.49, 8.05, 8.05, 8.05, 7.6, 7.6, 7.6, 7.15, 7.15, 7.15, 7.15, 7.15, 7.15, 7.15, 7.15, 7.15, 7.15, 6.71, 6.71, 6.26, 6.26, 5.81, 5.81, 5.81, 5.36, 5.36, 4.92, 4.92, 4.47, 4.47, 4.02, 4.02, 4.02, 4.47, 4.47, 4.47, 4.47, 4.47, 4.92, 5.36, 5.81, 6.26, 6.71, 7.6, 9.39, 10.28, 10.73, 10.73, 11.62, 11.62, 10.73, 9.83, 9.39, 9.83, 9.39, 7.6, 4.92, 3.13, 1.34, 1.79, 2.24, 1.79, 1.34, 1.34, 1.34, 6.26, 6.26, 6.26, 6.26, 6.71, 6.71, 6.71, 6.71, 6.71, 6.71, 7.15, 7.15, 7.15, 7.6, 7.6, 7.6, 7.6, 7.6, 7.6, 7.6, 7.6, 7.6, 8.05, 8.05, 8.05, 8.05, 8.49, 8.49, 8.49, 8.49, 8.49, 8.49, 8.49, 8.05, 8.05, 8.05, 7.6, 7.6, 7.6, 7.15, 7.15, 7.15, 7.15, 7.15, 7.15, 7.15, 7.15, 7.15, 7.15, 7.15, 6.71, 6.71, 6.26, 6.26, 6.26, 5.81, 5.81, 5.81, 5.36, 5.36, 4.92, 4.92, 4.47, 4.47, 4.47, 4.47, 4.47, 4.47, 4.92, 4.92, 4.92, 5.36, 5.36, 5.81, 6.26, 6.71, 7.6, 8.94, 9.39, 9.39, 10.28, 11.62, 12.07, 11.18, 10.73, 10.28, 9.83, 8.49, 5.36, 3.13, 1.79, 1.34, 1.79, 1.79, 1.79, 0.45, 0.45, 0.45, 6.26, 6.26, 6.26, 6.26, 6.26, 6.71, 6.71, 6.71, 6.71, 6.71, 7.15, 7.15, 7.15, 7.15, 7.6, 7.6, 7.6, 7.6, 7.6, 7.6, 7.6, 7.6, 7.6, 8.05, 8.05, 8.05, 8.05, 8.49, 8.49, 8.49, 8.49, 8.49, 8.05, 8.05, 8.05, 8.05, 7.6, 7.6, 7.15, 7.15, 7.15, 7.15, 7.15, 7.15, 7.15, 7.15, 7.15, 7.15, 7.15, 7.15, 6.71, 6.71, 6.71, 6.26, 6.26, 6.26, 5.81, 5.81, 5.81, 5.36, 5.36, 4.92, 4.47, 4.47, 4.02, 4.02, 4.02, 4.47, 4.47, 4.92, 5.36, 5.36, 5.36, 5.81, 6.26, 6.71, 7.6, 8.49, 8.94, 8.49, 9.39, 11.62, 12.52, 11.62, 10.73, 9.83, 7.6, 4.92, 2.68, 2.24, 1.79, 1.34, 1.34, 1.79, 0.89, -0.45, -0.45, -0.45, 6.26, 6.26, 6.26, 6.26, 6.26, 6.26, 6.71, 6.71, 6.71, 6.71, 6.71, 7.15, 7.15, 7.15, 7.15, 7.6, 7.6, 7.6, 7.6, 7.6, 7.6, 7.6, 7.6, 8.05, 8.05, 8.05, 8.05, 8.49, 8.49, 8.49, 8.49, 8.05, 8.05, 8.05, 8.05, 7.6, 7.6, 7.6, 7.15, 7.15, 7.15, 6.71, 7.15, 7.15, 7.15, 7.15, 7.15, 7.15, 7.15, 7.15, 6.71, 6.71, 6.71, 6.26, 6.26, 6.26, 6.26, 6.26, 5.81, 5.81, 5.36, 5.36, 4.92, 4.47, 4.02, 4.02, 4.02, 4.47, 4.47, 4.92, 5.36, 5.36, 5.81, 5.81, 6.26, 6.71, 7.15, 7.6, 8.05, 8.05, 8.49, 10.73, 11.62, 11.18, 8.94, 4.92, 1.79, 0.89, 1.79, 1.79, 1.34, 1.34, 1.34, 0.45, -0.45, -1.34, -1.34, -1.34, 6.26, 6.26, 6.26, 6.26, 6.26, 6.26, 6.71, 6.71, 6.71, 6.71, 6.71, 6.71, 7.15, 7.15, 7.15, 7.15, 7.6, 7.6, 7.6, 7.6, 7.6, 7.6, 7.6, 8.05, 8.05, 8.05, 8.05, 8.05, 8.49, 8.49, 8.05, 8.05, 8.05, 8.05, 7.6, 7.6, 7.6, 7.6, 7.15, 7.15, 7.15, 7.15, 6.71, 7.15, 7.15, 7.15, 7.15, 7.15, 7.15, 7.15, 6.71, 6.71, 6.71, 6.71, 6.71, 6.26, 6.26, 6.26, 6.26, 5.81, 5.81, 5.36, 4.92, 4.47, 4.47, 4.47, 4.47, 4.92, 5.36, 5.36, 5.81, 6.26, 5.81, 6.26, 6.26, 6.71, 6.71, 6.71, 7.15, 7.15, 8.05, 8.94, 9.83, 8.94, 4.92, 0.0, 0.0, 0.89, 1.34, 1.79, 1.34, 0.89, 0.0, -0.89, -1.79, -1.79, -1.79, -1.79, 6.26, 6.26, 6.26, 6.26, 6.26, 6.26, 6.71, 6.71, 6.71, 6.71, 6.71, 6.71, 7.15, 7.15, 7.15, 7.15, 7.6, 7.6, 7.6, 7.6, 7.6, 7.6, 7.6, 8.05, 8.05, 8.05, 8.05, 8.05, 8.05, 8.05, 8.05, 8.05, 8.05, 7.6, 7.6, 7.6, 7.6, 7.6, 7.15, 7.15, 7.15, 7.15, 7.15, 7.15, 7.15, 7.15, 7.15, 7.15, 7.15, 7.15, 7.15, 6.71, 6.71, 6.71, 6.71, 6.71, 6.26, 6.26, 6.26, 5.81, 5.81, 5.36, 5.36, 4.92, 4.47, 4.47, 4.47, 4.92, 5.36, 5.36, 5.81, 5.81, 6.26, 6.26, 6.26, 6.26, 6.26, 6.26, 6.26, 6.71, 7.15, 7.6, 7.6, 7.6, 4.92, -1.34, -0.45, 0.0, 0.89, 1.34, 0.89, 0.0, -1.34, -2.24, -2.68, -2.24, -2.24, -2.24, 6.26, 6.26, 6.26, 6.26, 6.26, 6.26, 6.71, 6.71, 6.71, 6.71, 6.71, 6.71, 6.71, 7.15, 7.15, 7.15, 7.6, 7.6, 7.6, 7.6, 7.6, 7.6, 7.6, 8.05, 8.05, 8.05, 8.05, 8.05, 8.05, 8.05, 8.05, 8.05, 8.05, 7.6, 7.6, 7.6, 7.6, 7.15, 7.15, 7.15, 7.15, 7.15, 7.15, 7.15, 7.15, 7.15, 7.15, 7.15, 7.15, 7.15, 7.15, 7.15, 6.71, 6.71, 6.71, 6.71, 6.71, 6.71, 6.26, 6.26, 5.81, 5.81, 5.36, 4.92, 4.47, 4.47, 4.47, 4.47, 4.92, 5.36, 5.36, 5.81, 5.81, 5.81, 6.26, 6.26, 6.26, 5.81, 6.26, 6.26, 6.71, 7.15, 6.71, 7.15, 1.34, -0.89, -0.45, 0.0, 0.0, 0.45, 0.0, -1.79, -2.68, -3.13, -2.68, -2.68, -2.68, -2.68, 6.26, 6.26, 6.26, 6.26, 6.26, 6.26, 6.71, 6.71, 6.71, 6.71, 6.71, 6.71, 6.71, 7.15, 7.15, 7.15, 7.15, 7.6, 7.6, 7.6, 7.6, 7.6, 7.6, 8.05, 8.05, 8.05, 8.05, 8.05, 8.05, 8.05, 8.05, 8.05, 7.6, 7.6, 7.6, 7.6, 7.15, 7.15, 7.15, 7.15, 7.15, 7.6, 7.6, 7.6, 7.6, 7.6, 7.6, 7.6, 7.15, 7.15, 7.15, 7.15, 7.15, 6.71, 6.71, 6.71, 6.71, 6.71, 6.71, 6.26, 6.26, 5.81, 5.81, 5.36, 4.92, 4.47, 4.47, 4.47, 4.92, 4.92, 5.36, 5.36, 5.81, 5.36, 5.81, 5.81, 5.81, 5.81, 5.81, 6.26, 6.26, 6.71, 6.71, 4.92, 0.45, -1.34, -0.89, -0.89, -0.45, -0.89, -1.79, -2.68, -3.13, -3.13, -3.13, -3.13, -3.13, -3.13, 6.26, 6.26, 6.26, 6.26, 6.26, 6.26, 6.71, 6.71, 6.71, 6.71, 6.71, 6.71, 6.71, 7.15, 7.15, 7.15, 7.15, 7.6, 7.6, 7.6, 7.6, 7.6, 7.6, 7.6, 8.05, 8.05, 8.05, 8.05, 8.05, 8.05, 8.05, 7.6, 7.6, 7.6, 7.6, 7.6, 7.15, 7.15, 7.15, 7.15, 7.6, 7.6, 7.6, 7.6, 7.6, 7.6, 7.6, 7.6, 7.6, 7.15, 7.15, 7.15, 7.15, 7.15, 7.15, 7.15, 6.71, 6.71, 6.71, 6.71, 6.26, 6.26, 5.81, 5.36, 4.92, 4.92, 4.47, 4.92, 4.92, 5.36, 5.36, 5.81, 5.81, 5.81, 4.92, 4.92, 4.92, 5.36, 5.81, 6.26, 5.81, 5.81, 5.81, 1.79, -1.79, -2.24, -1.79, -2.24, -2.24, -2.68, -3.13, -3.13, -3.58, -3.58, -3.58, -3.13, -3.13, -3.13, 6.26, 6.26, 6.26, 6.26, 6.26, 6.26, 6.71, 6.71, 6.71, 6.71, 6.71, 6.71, 6.71, 6.71, 7.15, 7.15, 7.15, 7.15, 7.6, 7.6, 7.6, 7.6, 7.6, 7.6, 7.6, 7.6, 7.6, 7.6, 7.6, 7.6, 7.6, 7.6, 7.6, 7.6, 7.6, 7.6, 7.6, 7.15, 7.15, 7.15, 7.6, 7.6, 7.6, 7.6, 8.05, 7.6, 7.6, 7.6, 7.6, 7.15, 7.15, 7.15, 7.15, 7.15, 7.15, 7.15, 7.15, 6.71, 6.71, 6.71, 6.71, 6.26, 5.81, 5.81, 5.36, 4.92, 4.47, 4.47, 4.92, 5.36, 5.81, 5.81, 6.26, 6.26, 5.81, 5.36, 4.92, 5.36, 5.81, 5.81, 5.36, 4.92, 4.02, 0.0, -3.58, -3.58, -3.58, -3.58, -4.02, -4.02, -3.58, -3.58, -3.58, -3.58, -3.58, -3.58, -3.58, -3.58, 6.26, 6.26, 6.26, 6.26, 6.26, 6.26, 6.71, 6.71, 6.71, 6.71, 6.71, 6.71, 6.71, 6.71, 7.15, 7.15, 7.15, 7.15, 7.15, 7.6, 7.6, 7.6, 7.6, 7.6, 7.6, 7.6, 7.6, 7.6, 7.6, 7.6, 7.6, 7.6, 7.6, 7.6, 7.6, 7.6, 7.6, 7.6, 7.6, 7.6, 7.6, 7.6, 7.6, 7.6, 8.05, 8.05, 7.6, 7.6, 7.6, 7.6, 7.15, 7.15, 7.15, 7.15, 7.15, 7.15, 7.15, 7.15, 6.71, 6.71, 6.71, 6.26, 6.26, 5.81, 5.81, 5.36, 4.92, 4.47, 4.92, 5.36, 5.36, 5.81, 6.26, 6.26, 5.81, 5.81, 5.36, 5.36, 5.36, 5.36, 4.92, 4.02, 3.58, 0.89, -2.68, -4.92, -4.47, -4.47, -4.47, -4.47, -4.02, -4.02, -4.02, -4.02, -3.58, -3.58, -3.58, -3.58, 6.26, 6.26, 6.26, 6.26, 6.26, 6.26, 6.71, 6.71, 6.71, 6.71, 6.71, 6.71, 6.71, 6.71, 7.15, 7.15, 7.15, 7.15, 7.15, 7.15, 7.6, 7.6, 7.6, 7.6, 7.6, 7.6, 7.6, 7.6, 7.6, 7.6, 7.6, 7.6, 7.6, 7.6, 7.6, 7.6, 7.6, 7.6, 7.6, 7.6, 7.6, 7.6, 7.6, 7.6, 7.6, 7.6, 7.6, 7.6, 7.6, 7.6, 7.15, 7.15, 7.15, 7.6, 7.6, 7.15, 7.15, 7.15, 7.15, 6.71, 6.71, 6.71, 6.26, 5.81, 5.81, 5.36, 4.92, 4.92, 4.92, 4.92, 5.36, 5.81, 5.81, 5.36, 5.36, 5.81, 5.81, 5.36, 5.36, 4.92, 4.47, 4.47, 4.47, 4.47, 0.89, -3.58, -4.92, -4.92, -4.92, -4.92, -4.47, -4.47, -4.47, -4.02, -3.58, -3.58, -3.58, -3.58, 6.26, 6.26, 6.26, 6.26, 6.26, 6.71, 6.71, 6.71, 6.71, 6.71, 6.71, 6.71, 6.71, 6.71, 7.15, 7.15, 7.15, 7.15, 7.15, 7.15, 7.15, 7.6, 7.6, 7.6, 7.6, 7.6, 7.6, 7.6, 7.6, 7.6, 7.6, 7.6, 7.6, 7.6, 7.6, 7.6, 7.6, 7.6, 7.6, 8.05, 8.05, 8.05, 7.6, 7.6, 7.6, 7.6, 7.6, 7.6, 7.6, 7.6, 7.6, 7.15, 7.15, 7.6, 7.6, 7.6, 7.6, 7.15, 7.15, 7.15, 7.15, 6.71, 6.26, 6.26, 5.81, 5.81, 5.36, 4.92, 4.92, 4.92, 5.36, 5.36, 5.36, 5.36, 5.36, 5.36, 5.81, 5.36, 4.92, 4.92, 4.92, 5.36, 5.81, 6.26, 4.02, -1.34, -4.47, -4.92, -5.36, -5.36, -4.92, -4.92, -4.47, -4.02, -4.02, -3.58, -3.58, -3.58, 5.81, 5.81, 6.26, 6.26, 6.26, 6.71, 6.71, 6.71, 6.71, 6.71, 6.71, 6.71, 6.71, 6.71, 6.71, 7.15, 7.15, 7.15, 7.15, 7.15, 7.15, 7.15, 7.15, 7.6, 7.6, 7.6, 7.6, 7.6, 7.6, 7.6, 7.6, 7.6, 7.6, 7.6, 7.6, 7.6, 7.6, 7.6, 7.6, 8.05, 8.05, 8.05, 7.6, 7.6, 7.6, 7.6, 7.6, 8.05, 8.05, 8.05, 7.6, 7.6, 7.6, 7.6, 7.6, 7.6, 7.6, 7.6, 7.6, 7.15, 7.15, 6.71, 6.71, 6.26, 6.26, 5.81, 5.36, 5.36, 5.36, 5.36, 5.36, 5.81, 5.81, 5.36, 5.36, 5.81, 5.81, 5.81, 5.36, 5.36, 5.36, 5.81, 6.26, 6.71, 5.36, 0.0, -4.47, -5.36, -5.81, -5.81, -5.36, -5.36, -4.92, -4.47, -4.02, -4.02, -4.02, -4.02, 5.81, 5.81, 6.26, 6.26, 6.26, 6.26, 6.71, 6.71, 6.71, 6.71, 6.71, 6.71, 6.71, 6.71, 6.71, 6.71, 7.15, 7.15, 7.15, 7.15, 7.15, 7.15, 7.15, 7.15, 7.6, 7.6, 7.6, 7.6, 7.6, 7.6, 7.6, 7.6, 7.6, 7.6, 7.6, 7.6, 7.6, 7.6, 7.6, 8.05, 8.05, 8.05, 8.05, 8.05, 7.6, 7.6, 7.6, 8.05, 8.05, 8.05, 7.6, 7.6, 7.6, 7.6, 7.6, 7.6, 7.6, 7.6, 7.6, 7.6, 7.15, 7.15, 6.71, 6.71, 6.26, 5.81, 5.81, 5.81, 5.81, 5.36, 5.36, 5.81, 5.81, 5.81, 5.81, 5.81, 5.81, 5.81, 5.81, 5.81, 5.81, 5.81, 6.26, 6.71, 5.81, 0.45, -4.47, -6.26, -6.26, -6.26, -6.26, -5.81, -5.36, -4.92, -4.47, -4.02, -4.02, -4.02, 5.81, 5.81, 5.81, 6.26, 6.26, 6.26, 6.71, 6.71, 6.71, 6.71, 6.71, 6.71, 6.71, 6.71, 6.71, 6.71, 6.71, 7.15, 7.15, 7.15, 7.15, 7.15, 7.15, 7.15, 7.15, 7.15, 7.6, 7.6, 7.6, 7.6, 7.6, 7.6, 7.6, 7.6, 7.6, 7.6, 7.6, 7.6, 7.6, 8.05, 8.05, 8.05, 8.05, 8.05, 8.05, 7.6, 7.6, 8.05, 8.05, 8.05, 7.6, 7.6, 7.6, 7.6, 7.6, 7.6, 7.6, 7.6, 7.6, 7.6, 7.6, 7.15, 7.15, 6.71, 6.71, 6.26, 6.26, 6.26, 5.81, 5.81, 5.81, 5.81, 5.81, 5.81, 5.81, 5.81, 5.81, 5.81, 5.81, 5.36, 5.36, 5.81, 6.26, 6.26, 6.26, 3.13, -3.13, -6.71, -7.15, -7.15, -6.71, -6.26, -5.81, -5.36, -4.47, -4.02, -4.02, -4.02, 5.81, 5.81, 5.81, 6.26, 6.26, 6.26, 6.71, 6.71, 6.71, 6.71, 6.71, 6.71, 6.71, 6.71, 6.71, 6.71, 6.71, 7.15, 7.15, 7.15, 7.15, 7.15, 7.15, 7.15, 7.15, 7.15, 7.6, 7.6, 7.6, 7.6, 7.6, 7.6, 7.6, 7.6, 7.6, 7.6, 7.6, 7.6, 7.6, 8.05, 8.05, 8.05, 8.05, 8.05, 8.05, 7.6, 7.6, 8.05, 8.05, 8.05, 7.6, 7.6, 7.6, 7.6, 7.6, 7.6, 7.6, 7.6, 7.6, 7.6, 7.6, 7.15, 7.15, 6.71, 6.71, 6.26, 6.26, 6.26, 5.81, 5.81, 5.81, 5.81, 5.81, 5.81, 5.81, 5.81, 5.81, 5.81, 5.81, 5.36, 5.36, 5.36, 5.81, 6.26, 6.71, 6.26, 3.13, -2.24, -5.81, -6.71, -7.15, -6.71, -6.26, -5.36, -4.92, -4.02, -4.02, -4.02]}, {"header": {"parameterCategory": 1, "parameterNumber": 3, "dx": 0.06612293990616946, "dy": 0.0552356325346848, "nx": 98, "ny": 59, "la1": 35.046912555036876, "la2": 31.78801023549047, "lo1": -121.43107172385933, "lo2": -114.95102361305473, "refTime": "2026041601"}, "data": [-11.62, -11.62, -11.62, -11.18, -11.18, -10.73, -9.83, -9.83, -9.39, -8.94, -8.49, -7.15, -5.36, -4.02, -2.68, -1.79, -0.89, 0.0, 0.0, 0.0, 0.0, -0.45, -1.34, -3.13, -4.02, -4.02, -3.58, -4.02, -4.02, -4.02, -4.02, -4.02, -3.58, -3.58, -3.13, -3.13, -3.13, -3.13, -3.13, -3.13, -3.58, -3.58, -4.02, -4.47, -4.92, -5.36, -5.36, -4.92, -3.13, -1.79, -0.89, -0.45, 0.0, 0.0, 0.45, 0.45, 0.89, 0.89, 1.34, 1.34, 1.79, 2.24, 2.24, 2.68, 2.68, 2.68, 2.68, 2.68, 2.68, 2.24, 2.24, 2.24, 1.79, 1.79, 1.79, 1.79, 1.34, 1.34, 1.34, 0.89, 0.0, 0.89, 4.47, 5.36, 5.36, 4.92, 4.47, 4.02, 4.02, 4.02, 4.47, 4.92, 5.36, 5.36, 4.92, 4.47, 4.02, 3.58, -11.62, -11.62, -11.62, -11.18, -11.18, -10.73, -10.28, -9.83, -9.83, -9.39, -8.49, -7.15, -5.36, -4.47, -3.13, -1.79, -1.34, -0.89, -0.89, -0.89, -1.34, -1.34, -1.79, -3.13, -4.47, -4.02, -4.02, -4.02, -4.02, -4.02, -4.02, -4.02, -3.58, -3.13, -3.13, -3.13, -3.58, -3.58, -3.58, -4.02, -4.02, -4.47, -4.92, -6.26, -6.26, -5.81, -4.92, -3.13, -2.24, -1.34, -0.89, -0.45, -0.45, 0.0, 0.0, 0.0, 0.45, 0.89, 1.34, 1.79, 1.79, 2.24, 2.24, 2.24, 2.24, 2.24, 2.24, 2.24, 1.79, 1.79, 1.79, 1.79, 1.34, 1.34, 1.79, 1.79, 1.34, 1.34, 1.34, 0.89, 0.0, 0.89, 4.47, 5.36, 5.36, 4.92, 4.47, 4.02, 4.02, 4.02, 4.47, 4.92, 5.36, 5.36, 4.92, 4.47, 4.02, 3.58, -11.62, -11.62, -11.62, -11.18, -11.18, -11.18, -10.73, -9.83, -9.39, -9.39, -8.94, -7.6, -6.26, -4.92, -3.58, -2.68, -1.79, -1.79, -1.79, -1.79, -2.24, -2.24, -2.24, -3.13, -4.47, -4.47, -4.02, -4.02, -4.02, -4.47, -4.47, -4.47, -4.02, -3.13, -3.58, -3.13, -3.58, -4.02, -4.92, -4.92, -5.81, -6.26, -6.71, -6.71, -6.26, -4.92, -3.13, -1.79, -1.34, -0.89, -0.89, -0.45, -0.45, 0.0, 0.0, 0.45, 0.89, 1.34, 1.34, 1.79, 2.24, 2.24, 2.24, 2.24, 2.24, 1.79, 1.79, 1.79, 1.34, 1.34, 1.34, 1.34, 1.79, 1.79, 1.79, 1.34, 0.89, 0.89, 0.45, 0.0, 0.0, 2.24, 4.92, 5.36, 5.36, 4.92, 4.47, 4.02, 4.02, 4.47, 4.92, 4.92, 4.92, 4.92, 4.47, 4.02, 3.58, 3.13, -11.62, -11.62, -11.62, -11.18, -11.18, -11.18, -10.73, -10.28, -9.39, -9.39, -8.94, -8.49, -6.71, -5.36, -4.02, -3.58, -3.13, -2.68, -2.68, -2.68, -2.24, -2.24, -2.24, -3.13, -4.47, -4.47, -4.47, -4.47, -4.47, -4.92, -4.92, -4.92, -4.92, -4.02, -4.02, -4.02, -4.02, -4.92, -6.26, -6.71, -7.15, -7.15, -6.71, -5.81, -4.47, -3.13, -2.24, -1.34, -0.89, -0.89, -0.45, -0.45, 0.0, 0.0, 0.45, 0.45, 0.89, 1.34, 1.79, 2.24, 2.24, 2.24, 2.24, 2.24, 1.79, 1.79, 1.79, 1.79, 1.79, 1.79, 2.24, 2.24, 2.24, 1.79, 1.34, 0.45, 0.0, 0.0, 0.0, 0.0, 0.89, 4.02, 5.36, 4.92, 4.92, 4.92, 4.47, 4.02, 4.02, 4.47, 4.92, 4.92, 4.47, 4.47, 4.02, 3.58, 3.13, 2.68, -11.62, -11.62, -11.62, -11.18, -11.18, -11.18, -10.73, -10.28, -9.83, -9.39, -8.94, -8.49, -6.71, -5.36, -4.47, -4.02, -4.02, -3.58, -3.58, -3.58, -3.13, -3.13, -3.13, -3.13, -4.02, -4.47, -4.47, -4.47, -4.47, -4.92, -5.36, -5.81, -5.81, -5.36, -4.92, -4.92, -4.92, -5.36, -7.15, -8.05, -7.6, -6.26, -5.36, -4.02, -3.13, -2.24, -1.79, -1.34, -0.89, -0.89, -0.45, 0.0, 0.0, 0.45, 0.89, 0.89, 1.34, 1.79, 2.24, 2.24, 2.24, 2.24, 1.79, 1.79, 1.79, 1.34, 1.79, 2.24, 3.13, 3.58, 3.58, 3.58, 2.68, 1.79, 0.89, 0.0, 0.0, -0.45, 0.0, 0.0, 2.68, 4.92, 4.92, 4.92, 4.92, 4.47, 4.47, 4.02, 4.02, 4.47, 4.47, 4.47, 4.02, 3.58, 3.13, 2.68, 2.68, 3.13, -11.62, -11.62, -11.62, -11.18, -11.18, -11.18, -10.73, -10.73, -9.83, -9.39, -8.49, -8.05, -6.71, -5.36, -4.47, -4.47, -4.47, -4.02, -4.47, -4.92, -5.36, -5.36, -4.92, -4.92, -4.92, -5.36, -4.92, -4.92, -4.92, -4.92, -5.36, -5.81, -5.81, -5.81, -5.36, -5.36, -4.92, -4.92, -6.71, -8.05, -7.15, -5.36, -4.47, -3.58, -2.68, -2.24, -1.79, -1.34, -0.89, -0.45, 0.0, 0.0, 0.89, 1.34, 1.79, 2.24, 2.24, 2.24, 2.24, 1.79, 1.34, 1.34, 1.34, 1.34, 1.34, 2.24, 3.13, 4.02, 4.47, 4.47, 4.02, 3.13, 2.68, 1.79, 0.89, 0.0, 0.0, 0.0, 0.0, 0.89, 3.58, 4.92, 4.47, 4.47, 4.02, 4.02, 3.58, 3.58, 3.58, 4.02, 4.02, 3.58, 3.58, 3.13, 2.68, 2.68, 2.68, 3.58, -11.62, -11.62, -11.18, -11.18, -11.18, -11.18, -10.73, -10.73, -10.28, -9.39, -8.49, -7.6, -6.26, -5.36, -4.47, -4.47, -4.47, -4.92, -5.36, -5.81, -5.81, -5.81, -5.81, -6.26, -6.26, -5.81, -4.92, -4.47, -4.92, -5.36, -5.36, -5.36, -5.81, -5.36, -4.92, -4.92, -4.47, -2.68, -3.58, -6.26, -6.26, -4.47, -3.13, -1.79, -0.89, 0.0, 0.0, 0.0, 0.45, 0.89, 1.34, 1.79, 2.24, 2.24, 2.24, 2.24, 2.24, 1.79, 1.34, 0.89, 0.89, 0.45, 0.89, 1.34, 2.68, 4.47, 5.36, 4.92, 4.02, 3.58, 2.68, 2.24, 1.79, 1.34, 0.45, 0.0, 0.0, 0.0, 0.45, 2.24, 4.02, 4.02, 3.58, 3.13, 3.13, 2.68, 2.68, 2.68, 3.13, 3.13, 3.13, 2.68, 2.68, 2.68, 2.68, 2.68, 3.58, 4.02, -11.62, -11.62, -11.18, -11.18, -11.18, -10.73, -10.73, -10.73, -10.28, -9.83, -8.49, -7.6, -6.26, -5.81, -4.92, -4.92, -4.92, -4.92, -5.36, -5.36, -4.92, -4.47, -4.92, -4.92, -4.47, -3.58, -1.79, 0.0, -1.79, -4.47, -5.81, -6.26, -6.26, -5.81, -5.36, -4.92, -3.13, 0.0, 0.0, -2.24, -2.24, -0.89, 0.0, 0.89, 1.79, 2.24, 2.24, 2.24, 2.24, 2.24, 2.68, 2.68, 2.68, 2.68, 2.24, 1.34, 0.89, 0.45, 0.0, 0.0, 0.0, 0.0, 0.45, 2.68, 5.36, 6.26, 5.81, 4.47, 3.13, 2.24, 1.79, 0.89, 0.45, 0.0, 0.0, 0.0, 0.0, 0.0, 0.89, 3.13, 3.58, 3.58, 2.68, 2.24, 1.79, 1.79, 1.79, 1.79, 1.79, 1.79, 1.79, 2.24, 2.68, 2.68, 3.13, 3.58, 4.02, 4.47, -11.62, -11.62, -11.18, -11.18, -11.18, -10.73, -10.73, -10.73, -10.28, -9.83, -8.94, -8.49, -7.6, -7.6, -6.71, -6.26, -6.26, -6.26, -5.81, -5.36, -4.47, -4.02, -4.02, -4.02, -3.13, -0.89, 1.34, 2.68, 0.45, -3.13, -4.92, -4.47, -3.13, -2.24, -2.68, -2.68, 0.0, 2.24, 2.24, 1.34, 1.79, 2.68, 3.13, 3.13, 2.68, 2.68, 2.68, 2.68, 3.13, 3.58, 3.13, 2.68, 2.24, 1.79, 0.89, 0.45, 0.0, -0.45, -0.89, -1.34, -0.89, 0.0, 2.24, 5.81, 7.15, 6.71, 5.36, 4.02, 2.68, 1.34, 0.89, 0.0, -0.45, -0.89, -0.89, -0.89, -0.89, 0.0, 1.79, 4.02, 4.02, 3.13, 2.24, 1.34, 0.89, 0.45, 0.45, 0.45, 0.45, 0.89, 1.34, 2.24, 3.13, 3.58, 4.02, 4.47, 4.47, 4.92, -11.62, -11.62, -11.18, -11.18, -11.18, -10.73, -10.73, -10.73, -10.28, -9.83, -9.39, -9.39, -8.94, -9.39, -8.49, -8.05, -8.05, -8.05, -7.15, -6.71, -6.71, -6.26, -5.81, -4.92, -3.58, -0.89, 1.79, 2.24, 0.0, -1.79, -1.79, 0.45, 1.34, 1.34, 0.45, 0.0, 1.34, 3.13, 3.13, 3.13, 4.02, 4.02, 3.58, 2.68, 1.79, 1.79, 1.79, 2.68, 3.13, 3.58, 3.13, 2.68, 2.24, 1.34, 0.89, 0.0, 0.0, -0.89, -1.79, -1.79, -0.45, 2.24, 5.81, 8.05, 7.6, 6.71, 5.81, 4.47, 3.13, 1.34, 0.0, -1.34, -2.24, -2.68, -2.24, -2.24, -1.79, 0.0, 3.58, 4.92, 4.47, 3.58, 2.68, 1.34, 0.0, -0.45, -0.45, 0.0, 0.0, 0.89, 1.79, 3.13, 4.02, 4.47, 4.92, 4.92, 4.92, 4.92, -11.62, -11.62, -11.18, -11.18, -11.18, -10.73, -10.73, -10.28, -10.28, -9.83, -9.83, -9.83, -9.83, -9.39, -8.05, -8.05, -7.6, -7.6, -6.71, -6.71, -6.71, -6.71, -5.81, -4.47, -3.58, -0.89, 0.89, 0.89, 0.0, -0.45, 0.45, 2.68, 2.68, 1.79, 0.89, 0.45, 1.79, 3.13, 3.58, 4.02, 4.02, 3.58, 2.68, 1.79, 1.34, 1.34, 2.24, 2.68, 3.13, 3.13, 3.13, 3.13, 3.13, 2.68, 2.68, 2.68, 2.24, 0.0, -1.79, -0.89, 3.13, 7.15, 8.94, 8.94, 8.94, 8.49, 7.6, 5.81, 3.58, 0.89, -1.34, -3.13, -4.02, -4.02, -4.02, -3.13, -2.68, 0.89, 4.92, 5.36, 4.47, 4.02, 3.58, 2.24, 0.45, -0.89, -0.89, 0.0, 1.34, 1.79, 2.68, 4.02, 4.47, 4.92, 4.92, 4.92, 4.92, 4.92, -11.62, -11.62, -11.18, -11.18, -11.18, -10.73, -10.73, -10.28, -10.28, -9.83, -9.83, -10.28, -9.83, -9.39, -8.05, -7.15, -5.81, -4.92, -4.47, -4.02, -3.58, -3.13, -2.24, -1.79, -1.34, 0.0, 0.45, 0.45, 0.45, 0.45, 0.89, 2.24, 2.24, 1.79, 0.89, 1.34, 2.24, 3.13, 3.58, 3.58, 3.58, 3.13, 2.68, 1.79, 1.34, 1.79, 2.24, 3.13, 3.13, 2.68, 3.13, 3.58, 4.02, 4.92, 5.36, 5.81, 5.36, 2.24, -0.45, 1.79, 8.05, 10.28, 9.83, 9.83, 9.83, 9.83, 9.39, 7.6, 4.92, 3.13, 0.0, -4.02, -5.36, -4.92, -4.47, -4.47, -1.79, 3.58, 5.81, 5.36, 4.47, 4.02, 3.58, 3.13, 1.34, 0.0, 0.0, 1.79, 3.13, 3.58, 4.02, 4.92, 5.36, 5.36, 4.92, 4.92, 4.92, 4.47, -11.18, -11.18, -11.18, -11.18, -11.18, -10.73, -10.28, -10.28, -10.28, -9.83, -9.83, -9.83, -9.83, -9.39, -8.49, -7.15, -5.36, -4.02, -3.13, -2.68, -2.24, -1.34, -0.89, -0.45, 0.0, 0.45, 0.45, 0.45, 1.34, 1.34, 0.89, 1.79, 1.79, 1.79, 1.79, 2.24, 2.68, 3.13, 3.13, 2.68, 2.68, 2.24, 1.79, 1.34, 0.89, 1.79, 2.68, 3.13, 2.68, 2.68, 2.68, 3.13, 3.58, 4.47, 4.92, 4.92, 4.92, 3.13, 0.0, 4.02, 9.39, 9.83, 9.83, 9.39, 9.83, 9.39, 8.94, 8.05, 6.26, 6.26, 3.13, -2.24, -4.92, -4.92, -4.92, -3.58, 1.34, 5.81, 6.26, 5.36, 4.47, 3.58, 3.58, 3.13, 2.24, 0.89, 1.34, 3.58, 4.92, 4.92, 4.92, 5.36, 5.81, 5.36, 5.36, 5.36, 4.92, 4.92, -11.18, -11.18, -11.18, -11.18, -11.18, -10.73, -10.28, -10.28, -9.83, -9.83, -9.83, -9.83, -9.83, -9.39, -8.94, -8.05, -6.26, -4.92, -4.02, -3.13, -2.68, -2.24, -1.79, -1.34, -0.45, 0.0, 0.0, 0.0, 1.34, 1.34, 0.89, 0.89, 0.89, 1.34, 1.79, 2.24, 2.24, 2.68, 2.68, 2.24, 1.79, 0.89, 0.45, 0.45, 1.34, 2.24, 3.13, 2.68, 2.24, 2.24, 2.24, 2.24, 2.68, 3.13, 2.68, 2.68, 2.24, 1.34, 0.45, 4.02, 8.49, 8.49, 8.49, 8.05, 7.6, 7.15, 6.71, 6.26, 5.36, 5.81, 4.47, -0.89, -4.02, -4.92, -4.02, 0.45, 5.81, 7.15, 6.26, 4.92, 4.02, 3.13, 3.13, 2.68, 2.68, 1.79, 2.24, 4.02, 5.36, 4.92, 4.92, 5.36, 5.81, 5.81, 5.81, 5.81, 5.36, 5.36, -11.18, -11.18, -11.18, -11.18, -11.18, -10.73, -10.28, -10.28, -9.83, -9.83, -9.83, -9.83, -9.39, -8.94, -8.94, -8.49, -7.6, -6.26, -5.36, -4.47, -4.02, -3.13, -2.68, -2.24, -1.34, -0.45, 0.0, 0.45, 0.89, 1.34, 0.89, 0.45, 0.45, 0.89, 1.34, 2.24, 2.68, 3.13, 2.24, 1.34, 0.45, 0.0, 0.0, 0.89, 2.24, 3.13, 3.58, 3.13, 2.68, 2.24, 1.79, 1.79, 2.24, 2.68, 2.68, 2.24, 0.89, 0.0, 0.0, 4.02, 7.15, 6.26, 5.81, 4.92, 4.47, 4.02, 4.02, 3.58, 3.13, 3.13, 2.68, -0.89, -4.02, -3.58, 0.89, 6.26, 8.05, 7.6, 6.26, 4.92, 4.02, 2.68, 2.24, 1.79, 1.34, 1.79, 3.13, 4.47, 5.36, 4.92, 4.92, 5.36, 5.81, 6.26, 6.26, 5.81, 5.81, 5.81, -11.18, -11.18, -11.18, -11.18, -11.18, -10.73, -10.73, -10.28, -9.83, -9.83, -9.39, -9.39, -9.39, -8.94, -8.49, -8.05, -7.6, -7.15, -6.26, -5.36, -4.47, -4.02, -3.13, -2.24, -1.34, -0.45, 0.45, 1.34, 1.34, 1.34, 0.89, 0.45, 0.0, 0.45, 0.89, 2.24, 2.68, 2.68, 1.79, 0.45, 0.0, 0.0, 0.89, 2.24, 3.13, 3.58, 3.58, 3.58, 3.13, 2.24, 2.24, 2.24, 2.68, 2.68, 2.68, 1.79, 0.45, 0.0, 0.89, 4.02, 5.81, 4.92, 4.02, 3.13, 2.24, 1.79, 1.79, 2.24, 2.68, 2.68, 0.45, -3.13, -3.58, 0.45, 6.26, 8.49, 8.49, 7.6, 6.26, 4.92, 4.02, 2.68, 2.24, 1.79, 1.79, 2.68, 3.58, 4.92, 5.36, 4.92, 5.36, 5.81, 6.26, 6.26, 6.26, 5.81, 5.81, 5.81, -11.18, -10.73, -10.73, -10.73, -10.73, -10.73, -10.73, -10.28, -9.83, -9.83, -9.39, -9.39, -8.94, -8.94, -8.49, -8.05, -7.6, -7.15, -6.26, -5.81, -4.92, -4.02, -3.13, -2.24, -0.89, 0.0, 0.89, 1.34, 1.34, 0.89, 0.45, 0.0, -0.45, -0.45, 0.0, 0.89, 1.79, 1.34, 0.89, 0.0, 0.45, 1.34, 2.24, 3.13, 3.13, 3.58, 3.58, 3.58, 3.13, 2.68, 2.24, 2.24, 2.68, 2.68, 2.68, 2.24, 1.34, 1.34, 2.24, 4.02, 4.92, 4.02, 3.13, 2.24, 1.34, 0.89, 0.89, 0.89, 1.34, 1.34, -0.45, -2.68, -0.45, 4.47, 7.6, 8.49, 8.05, 7.6, 6.26, 5.36, 4.47, 3.13, 2.68, 2.68, 2.68, 3.58, 4.02, 4.92, 4.92, 5.36, 5.36, 5.36, 6.26, 6.26, 5.81, 5.81, 5.36, 5.36, -10.73, -10.73, -10.73, -10.73, -10.73, -10.73, -10.73, -10.28, -9.83, -9.83, -9.39, -9.39, -8.94, -8.49, -8.05, -7.6, -7.6, -7.15, -6.26, -5.36, -4.47, -3.58, -3.13, -1.79, 0.0, 0.0, 0.45, 0.45, 0.0, 0.0, -0.45, -0.45, -1.34, -1.34, -0.89, 0.0, 0.0, 0.0, 0.0, 0.0, 0.89, 2.24, 2.68, 2.68, 3.13, 3.58, 3.58, 3.13, 3.13, 2.68, 2.68, 2.68, 2.68, 2.68, 3.13, 2.68, 2.68, 2.68, 3.58, 4.02, 4.02, 3.58, 2.68, 1.79, 0.89, 0.45, 0.0, 0.0, -0.45, -0.45, -0.45, 0.45, 4.02, 6.71, 7.15, 6.71, 5.81, 5.36, 4.92, 4.47, 4.02, 3.58, 3.13, 3.58, 4.02, 4.47, 4.47, 4.47, 4.92, 4.92, 5.36, 5.36, 5.81, 6.26, 5.81, 5.36, 5.36, 5.36, -10.73, -10.73, -10.73, -10.73, -10.73, -10.73, -10.73, -10.28, -9.83, -9.83, -9.39, -8.94, -8.94, -8.49, -8.49, -7.6, -7.6, -7.15, -6.26, -4.92, -4.02, -4.02, -4.02, -2.68, -1.79, -0.89, -1.34, -1.34, -1.34, -0.89, -0.89, -0.89, -1.34, -1.79, -2.24, -1.79, -1.34, -1.34, -0.89, 0.0, 0.89, 1.79, 1.79, 2.24, 2.68, 3.13, 3.13, 2.68, 2.24, 2.24, 2.24, 2.24, 2.68, 3.13, 3.58, 3.58, 3.13, 3.58, 4.02, 3.58, 3.13, 2.24, 1.79, 0.89, 0.45, 0.0, 0.0, -0.45, -1.34, -0.45, 0.89, 4.02, 6.26, 6.71, 5.36, 3.58, 1.79, 1.34, 1.34, 2.24, 2.68, 3.13, 3.58, 4.02, 4.02, 4.47, 4.47, 4.47, 4.47, 4.47, 4.92, 5.36, 5.36, 5.81, 5.81, 5.36, 4.92, 4.92, -10.73, -10.73, -10.73, -10.73, -10.73, -10.73, -10.28, -10.28, -9.83, -9.83, -9.39, -8.94, -8.94, -8.49, -8.49, -8.05, -7.6, -7.15, -6.26, -5.36, -4.92, -5.36, -5.36, -5.36, -4.92, -4.02, -3.13, -2.24, -1.79, -0.89, 0.0, 0.0, -0.45, -1.79, -2.24, -2.24, -2.24, -1.79, -0.89, 0.0, 0.45, 1.34, 1.79, 2.24, 2.68, 2.24, 2.24, 2.24, 1.79, 1.79, 1.79, 2.24, 3.13, 3.58, 4.02, 4.02, 4.02, 4.47, 4.02, 3.13, 1.79, 1.34, 0.45, 0.0, 0.0, 0.0, 0.0, -0.45, 0.0, 1.79, 4.02, 5.81, 5.81, 4.02, 1.79, 0.0, -1.79, -2.68, -0.45, 0.45, 2.24, 3.13, 3.58, 4.02, 4.02, 4.47, 4.92, 4.47, 4.02, 4.02, 4.47, 4.92, 5.36, 5.36, 5.36, 5.36, 4.92, 4.92, -10.73, -10.73, -10.73, -10.73, -10.73, -10.28, -10.28, -10.28, -9.83, -9.83, -9.39, -8.94, -8.94, -8.49, -8.49, -8.05, -7.6, -7.15, -7.15, -7.15, -6.71, -6.26, -6.26, -6.26, -6.26, -5.36, -3.58, -2.24, -0.89, 0.0, 0.0, 0.45, 0.0, -0.89, -2.24, -2.68, -2.24, -1.79, -1.34, -0.45, 0.0, 0.89, 1.34, 1.79, 1.79, 1.79, 1.79, 1.79, 1.34, 0.89, 1.34, 2.68, 3.58, 4.02, 4.02, 4.02, 4.92, 5.36, 3.58, 2.24, 1.34, 0.45, 0.0, 0.0, 0.0, 0.0, 0.0, 0.89, 3.13, 4.92, 6.26, 6.26, 4.47, 1.34, -1.34, -3.13, -4.47, -4.02, -2.24, 0.0, 2.24, 3.58, 4.02, 4.02, 4.47, 4.47, 4.92, 4.47, 4.02, 3.58, 4.02, 4.47, 4.92, 4.92, 4.92, 4.92, 4.92, 4.92, -10.73, -10.73, -10.28, -10.28, -10.28, -10.28, -10.28, -10.28, -9.83, -9.83, -9.39, -8.94, -8.94, -8.49, -8.49, -8.05, -7.6, -7.6, -7.6, -8.05, -7.15, -6.26, -5.81, -5.81, -5.81, -4.92, -3.58, -2.24, -1.34, -0.45, 0.0, 0.0, 0.0, -0.89, -1.79, -2.24, -2.24, -1.79, -1.34, -0.45, 0.0, 0.45, 0.89, 0.89, 1.34, 1.79, 1.34, 0.89, 0.89, 0.89, 2.24, 3.58, 4.02, 3.58, 3.58, 4.02, 4.92, 5.36, 4.02, 2.24, 1.34, 0.45, 0.0, 0.0, 0.0, 0.0, 0.89, 4.02, 5.81, 5.81, 5.81, 5.36, 4.47, 0.45, -3.58, -4.02, -3.58, -3.13, -0.89, 1.34, 2.68, 3.58, 4.02, 4.92, 4.92, 4.92, 4.92, 4.47, 4.47, 4.02, 4.02, 4.47, 4.92, 4.92, 4.92, 4.92, 5.36, 5.36, -10.28, -10.28, -10.28, -10.28, -10.28, -10.28, -10.28, -10.28, -9.83, -9.83, -9.39, -8.94, -8.94, -8.49, -8.49, -8.05, -8.05, -7.6, -7.6, -7.6, -7.15, -5.81, -4.92, -4.47, -4.47, -4.47, -3.58, -2.68, -2.24, -1.34, -0.89, -0.89, -0.89, -1.34, -1.79, -1.79, -1.79, -1.34, -0.89, -0.45, 0.0, 0.0, 0.45, 0.45, 0.89, 1.34, 0.89, 0.45, 0.89, 1.79, 3.13, 3.58, 3.58, 3.58, 3.58, 4.02, 4.47, 4.92, 4.47, 3.13, 1.79, 0.45, 0.0, 0.0, 0.0, 1.34, 4.02, 5.36, 5.81, 4.92, 3.13, 2.24, 0.45, -0.45, -1.34, -0.89, 0.0, 0.45, 1.79, 2.68, 3.13, 3.58, 4.47, 4.92, 4.92, 4.92, 4.47, 4.47, 4.47, 4.47, 4.47, 4.47, 4.47, 4.47, 4.47, 4.92, 4.92, 4.92, -10.28, -10.28, -10.28, -10.28, -10.28, -10.28, -10.28, -9.83, -9.83, -9.83, -9.39, -8.94, -8.94, -8.49, -8.49, -8.05, -8.05, -7.6, -7.6, -7.6, -6.71, -5.81, -4.92, -4.47, -4.02, -3.58, -3.58, -3.13, -2.68, -2.24, -1.79, -1.79, -1.79, -1.79, -1.79, -1.79, -1.34, -0.89, -0.45, 0.0, 0.0, 0.0, 0.45, 0.45, 0.45, 0.89, 0.45, 0.89, 1.34, 2.68, 3.13, 3.13, 3.13, 3.13, 3.58, 3.58, 3.58, 3.58, 3.58, 3.58, 2.68, 1.34, 1.34, 1.34, 2.24, 4.02, 5.81, 5.81, 5.36, 4.02, 1.79, -1.34, -0.45, 0.0, 0.45, 1.34, 2.68, 3.13, 3.13, 3.13, 3.13, 3.58, 4.02, 4.02, 4.47, 4.47, 4.02, 4.02, 4.47, 4.47, 4.47, 4.02, 3.58, 3.58, 4.47, 4.92, 4.92, 4.92, -10.28, -10.28, -10.28, -10.28, -10.28, -10.28, -9.83, -9.83, -9.83, -9.83, -9.39, -8.94, -8.94, -8.49, -8.49, -8.05, -8.05, -7.6, -7.6, -7.15, -7.15, -6.26, -5.81, -4.92, -4.02, -3.58, -3.58, -3.13, -2.68, -2.68, -2.24, -2.24, -2.24, -2.24, -2.24, -2.24, -1.34, -0.89, -0.45, 0.0, 0.0, 0.0, 0.0, 0.45, 0.45, 0.0, 0.0, 0.89, 1.34, 1.79, 2.24, 2.24, 2.24, 2.68, 3.13, 3.13, 2.68, 2.68, 2.68, 3.13, 3.13, 2.68, 2.68, 2.68, 4.02, 5.36, 6.26, 6.26, 5.36, 1.79, 0.0, -1.34, 0.0, 0.89, 1.79, 2.68, 2.68, 2.68, 2.68, 3.13, 3.13, 3.13, 3.13, 3.58, 4.02, 4.02, 4.02, 4.02, 4.02, 4.02, 4.02, 3.58, 3.58, 3.58, 4.02, 4.47, 4.02, 4.02, -10.28, -10.28, -10.28, -9.83, -9.83, -9.83, -9.83, -9.83, -9.83, -9.39, -9.39, -8.94, -8.94, -8.49, -8.49, -8.05, -8.05, -7.6, -7.6, -7.15, -7.15, -6.71, -6.26, -5.36, -4.92, -4.47, -3.58, -3.13, -3.13, -2.68, -2.68, -2.68, -2.24, -2.24, -2.24, -2.24, -1.79, -1.34, -0.89, -0.45, 0.0, 0.0, 0.0, 0.0, 0.45, 0.45, 0.0, 0.45, 0.45, 0.89, 0.89, 0.89, 1.79, 2.68, 3.13, 3.13, 2.68, 2.24, 2.24, 2.68, 2.68, 3.13, 2.68, 3.13, 4.02, 5.81, 6.26, 5.81, 4.02, 2.24, 0.45, -0.45, -0.45, 0.45, 2.24, 3.13, 2.24, 1.34, 2.24, 2.68, 2.24, 2.24, 2.68, 3.13, 4.02, 4.02, 4.02, 4.02, 3.58, 3.58, 4.02, 4.02, 3.58, 3.58, 4.02, 3.58, 3.58, 3.58, -9.83, -9.83, -9.83, -9.83, -9.83, -9.83, -9.83, -9.83, -9.39, -9.39, -9.39, -8.94, -8.94, -8.49, -8.49, -8.05, -8.05, -7.6, -7.6, -7.15, -7.15, -6.71, -6.26, -5.81, -5.36, -4.92, -4.02, -3.58, -3.13, -3.13, -2.68, -2.68, -2.68, -2.24, -2.24, -1.79, -1.79, -1.34, -1.34, -0.89, -0.45, -0.45, 0.0, 0.0, 0.45, 0.45, 0.0, 0.0, 0.0, 0.0, 0.0, 0.0, 1.34, 2.68, 3.13, 3.13, 2.24, 2.24, 2.68, 2.68, 1.79, 2.24, 2.24, 3.13, 4.47, 5.36, 5.36, 4.02, 2.68, 1.79, 0.45, 0.0, -0.45, 0.0, 1.79, 3.13, 1.79, 0.0, 0.45, 1.34, 1.34, 1.34, 2.68, 3.58, 3.58, 3.58, 4.02, 3.58, 3.58, 3.58, 3.58, 4.02, 4.02, 4.02, 3.58, 3.58, 3.13, 3.13, -9.83, -9.83, -9.83, -9.83, -9.83, -9.83, -9.83, -9.39, -9.39, -9.39, -8.94, -8.94, -8.94, -8.49, -8.49, -8.05, -8.05, -7.6, -7.6, -7.15, -7.15, -6.71, -6.26, -5.81, -5.81, -5.36, -4.47, -4.47, -4.02, -3.58, -3.13, -3.13, -2.68, -2.24, -2.24, -1.79, -1.79, -1.79, -1.34, -1.34, -0.89, -0.45, 0.0, 0.0, 0.0, 0.0, 0.0, 0.0, -0.45, -0.45, -0.45, 0.0, 1.34, 2.68, 2.68, 2.68, 2.24, 2.24, 3.13, 2.68, 1.79, 1.34, 1.79, 3.13, 4.92, 4.92, 4.47, 3.13, 1.79, 0.45, 0.0, 0.0, -0.89, -0.89, -0.45, 0.0, 0.0, -0.89, -0.45, 0.0, 0.0, 1.34, 3.13, 3.58, 3.58, 3.13, 3.58, 3.58, 3.58, 3.13, 3.13, 3.13, 4.02, 4.02, 3.58, 3.13, 2.68, 2.68, -9.83, -9.83, -9.83, -9.83, -9.83, -9.83, -9.39, -9.39, -9.39, -9.39, -8.94, -8.94, -8.94, -8.49, -8.49, -8.05, -8.05, -7.6, -7.6, -7.15, -7.15, -6.71, -6.26, -6.26, -5.81, -5.36, -5.36, -4.92, -4.47, -4.02, -3.58, -3.13, -3.13, -2.68, -2.68, -2.24, -2.24, -1.79, -1.79, -1.34, -1.34, -0.89, -0.45, 0.0, 0.45, 0.89, 0.0, -0.89, -1.34, -0.89, 0.0, 0.89, 2.24, 2.68, 2.68, 2.24, 2.24, 2.24, 2.68, 2.24, 1.79, 0.89, 1.79, 3.58, 4.92, 4.47, 4.47, 3.58, 1.34, 0.0, -0.89, -0.89, -1.34, -2.24, -2.68, -2.68, -1.79, -0.89, -1.34, -1.79, -0.45, 2.24, 4.02, 4.02, 3.58, 3.13, 3.13, 3.13, 2.68, 2.68, 2.68, 2.24, 2.68, 3.58, 3.13, 2.68, 2.24, 2.24, -9.83, -9.83, -9.83, -9.83, -9.39, -9.39, -9.39, -9.39, -9.39, -9.39, -8.94, -8.94, -8.49, -8.49, -8.49, -8.05, -8.05, -7.6, -7.6, -7.15, -7.15, -6.71, -6.26, -6.26, -5.81, -5.36, -5.36, -4.92, -4.47, -4.02, -3.58, -3.58, -3.13, -3.13, -2.68, -2.68, -2.24, -2.24, -2.24, -1.79, -1.34, -1.34, -0.89, -0.45, 0.0, 0.45, 0.0, 0.0, 0.0, 0.89, 2.24, 2.68, 2.68, 2.68, 2.24, 1.79, 1.79, 1.79, 2.24, 1.79, 1.34, 1.34, 2.24, 3.58, 3.58, 3.58, 4.02, 4.02, 2.68, 0.0, -1.34, -1.34, -0.45, -0.89, -2.24, -3.13, -2.68, -1.34, -0.89, -1.34, -0.45, 2.68, 4.92, 4.47, 3.58, 2.68, 2.24, 1.79, 1.79, 1.79, 1.34, 1.34, 1.34, 2.68, 2.24, 1.79, 1.79, 1.79, -9.83, -9.83, -9.83, -9.83, -9.39, -9.39, -9.39, -9.39, -8.94, -8.94, -8.94, -8.94, -8.49, -8.49, -8.49, -8.05, -8.05, -7.6, -7.6, -7.15, -7.15, -6.71, -6.26, -6.26, -5.81, -5.81, -5.36, -4.92, -4.47, -4.47, -4.02, -4.02, -3.58, -3.13, -3.13, -3.13, -2.68, -2.68, -2.24, -2.24, -1.79, -1.34, -1.34, -0.89, -0.89, -0.45, 0.0, 0.45, 1.34, 2.24, 2.68, 2.24, 2.24, 2.68, 2.24, 1.79, 1.34, 1.34, 1.34, 1.34, 1.34, 1.34, 2.68, 2.68, 2.24, 2.24, 2.24, 2.68, 2.68, 0.89, 0.0, 0.45, 1.79, 1.79, 0.45, -1.34, -2.68, -2.24, -1.34, 0.0, 0.89, 3.58, 4.92, 3.58, 2.68, 1.79, 0.89, 0.89, 0.89, 0.89, 0.45, 0.45, 0.45, 0.89, 1.34, 1.34, 1.34, 1.34, -9.83, -9.83, -9.83, -9.39, -9.39, -9.39, -9.39, -8.94, -8.94, -8.94, -8.94, -8.94, -8.49, -8.49, -8.49, -8.05, -8.05, -8.05, -7.6, -7.15, -7.15, -6.71, -6.26, -6.26, -5.81, -5.81, -5.36, -4.92, -4.47, -4.02, -4.47, -4.47, -4.02, -4.02, -3.58, -3.13, -3.13, -2.68, -2.68, -2.24, -2.24, -1.79, -1.34, -1.34, -1.34, -1.34, -0.45, 0.45, 1.34, 1.79, 1.79, 1.79, 1.79, 1.79, 1.34, 1.79, 1.34, 0.89, 0.89, 0.89, 1.34, 1.79, 1.79, 1.79, 1.79, 1.34, 0.89, 0.45, 0.45, 0.89, 1.34, 2.68, 2.68, 2.24, 2.24, 0.0, -0.89, -1.34, -0.45, 0.89, 2.68, 4.02, 4.02, 2.68, 1.34, 0.45, 0.0, 0.0, 0.0, 0.0, 0.0, 0.0, 0.0, 0.0, 0.45, 0.45, 2.24, 2.24, -9.83, -9.83, -9.83, -9.83, -9.39, -9.39, -9.39, -8.94, -8.94, -8.94, -8.94, -8.94, -8.49, -8.49, -8.49, -8.05, -8.05, -8.05, -7.6, -7.6, -7.15, -6.71, -6.26, -6.26, -5.81, -5.81, -5.36, -5.36, -4.92, -4.47, -4.47, -4.47, -4.47, -4.47, -4.02, -3.58, -3.58, -3.13, -2.68, -2.68, -2.24, -2.24, -1.79, -1.79, -1.34, -1.34, -0.45, 0.0, 0.45, 0.89, 0.89, 1.34, 1.34, 1.34, 1.34, 0.89, 0.89, 0.89, 0.89, 0.89, 1.34, 1.34, 1.34, 1.34, 1.34, 1.34, 0.45, 0.0, 0.0, 0.45, 1.79, 2.68, 1.79, 0.0, 0.0, 0.45, 0.45, 0.89, 1.79, 2.68, 3.13, 2.68, 2.24, 1.34, 0.0, -0.45, -0.89, -0.89, 0.0, 0.0, 0.0, 0.0, 0.0, 0.0, 0.45, 0.89, 3.13, 3.13, -9.83, -9.83, -9.83, -9.83, -9.39, -9.39, -8.94, -8.94, -8.94, -8.94, -8.94, -8.49, -8.49, -8.49, -8.49, -8.05, -8.05, -8.05, -7.6, -7.6, -7.15, -6.71, -6.71, -6.26, -5.81, -5.81, -5.36, -5.36, -5.36, -4.92, -4.47, -4.47, -4.47, -4.47, -4.47, -4.02, -4.02, -3.58, -3.13, -3.13, -2.68, -2.24, -2.24, -1.79, -1.34, -1.34, -0.89, -0.45, 0.0, 0.0, 0.45, 0.45, 0.89, 0.89, 0.89, 0.89, 1.34, 1.34, 1.34, 1.34, 1.34, 1.34, 1.79, 1.79, 1.34, 1.34, 0.89, 0.45, 0.0, 0.45, 1.34, 1.79, 0.89, -0.89, -1.34, 0.0, 1.79, 3.13, 3.58, 2.68, 1.79, 0.89, 0.0, 0.0, -0.45, -1.79, -2.24, -1.79, 0.0, 0.0, 0.0, 0.0, 0.0, 0.45, 1.79, 2.68, 4.02, 4.02, -9.83, -9.83, -9.83, -9.83, -9.39, -9.39, -9.39, -8.94, -8.94, -8.94, -8.94, -8.49, -8.49, -8.49, -8.49, -8.05, -8.05, -8.05, -7.6, -7.6, -7.15, -7.15, -6.71, -6.26, -5.81, -5.81, -5.36, -5.36, -5.36, -4.92, -4.92, -4.47, -4.47, -4.47, -4.47, -4.47, -4.02, -4.02, -3.58, -3.13, -3.13, -2.68, -2.24, -1.79, -1.34, -1.34, -0.89, -0.45, 0.0, 0.0, 0.0, 0.0, 0.45, 0.45, 0.89, 0.89, 1.34, 1.34, 1.34, 1.34, 1.34, 1.79, 1.79, 1.79, 1.34, 1.34, 1.34, 0.89, 0.89, 0.45, 0.89, 0.89, 0.45, 0.0, -0.89, 0.45, 2.24, 4.02, 3.58, 2.68, 0.89, -0.45, -0.89, -1.34, -1.79, -3.58, -2.68, -0.45, 0.89, 1.34, 0.89, 0.45, 0.45, 1.34, 2.68, 3.58, 4.02, 4.02, -9.83, -9.83, -9.83, -9.83, -9.39, -9.39, -9.39, -8.94, -8.94, -8.94, -8.49, -8.49, -8.49, -8.49, -8.49, -8.05, -8.05, -7.6, -7.6, -7.6, -7.15, -7.15, -6.71, -6.26, -6.26, -5.81, -5.81, -5.36, -5.36, -5.36, -4.92, -4.92, -4.47, -4.47, -4.47, -4.47, -4.47, -4.02, -4.02, -3.58, -3.13, -3.13, -2.24, -1.79, -1.79, -1.79, -1.34, -0.89, -0.89, -0.45, 0.0, 0.0, 0.0, 0.45, 0.89, 1.34, 1.34, 1.34, 1.34, 1.34, 1.34, 1.34, 0.89, 0.89, 1.34, 0.89, 0.89, 0.89, 0.45, 0.45, 0.0, 0.45, 0.89, 0.89, 0.0, 0.0, 1.34, 2.24, 2.24, 1.34, 0.45, -0.45, -0.89, -1.79, -2.68, -3.13, 0.0, 2.68, 3.13, 2.24, 1.79, 1.34, 1.34, 2.24, 2.68, 3.13, 3.58, 3.58, -9.83, -9.83, -9.83, -9.39, -9.39, -9.39, -9.39, -8.94, -8.94, -8.94, -8.49, -8.49, -8.49, -8.49, -8.05, -8.05, -8.05, -7.6, -7.6, -7.6, -7.15, -7.15, -6.71, -6.71, -6.26, -6.26, -5.81, -5.81, -5.36, -5.36, -5.36, -5.36, -4.92, -4.47, -4.47, -4.47, -4.47, -4.02, -4.02, -4.02, -3.58, -3.13, -2.68, -1.79, -1.79, -1.79, -1.79, -1.79, -1.34, -0.89, -0.89, -0.45, 0.0, 0.45, 0.89, 1.34, 1.34, 1.34, 1.34, 0.89, 0.89, 0.89, 0.45, 0.45, 0.89, 0.45, 0.45, 0.0, 0.0, 0.0, 0.0, 0.45, 1.34, 1.79, 1.34, 0.0, -0.45, -0.45, -0.45, -0.45, -0.45, -0.45, -0.45, -1.34, -3.13, -0.89, 4.02, 4.92, 4.02, 2.68, 1.79, 1.79, 1.79, 2.24, 2.68, 2.68, 2.24, 2.68, -9.83, -9.83, -9.83, -9.39, -9.39, -9.39, -9.39, -8.94, -8.94, -8.94, -8.49, -8.49, -8.49, -8.49, -8.05, -8.05, -8.05, -7.6, -7.6, -7.6, -7.15, -7.15, -6.71, -6.71, -6.71, -6.26, -6.26, -5.81, -5.81, -5.81, -5.36, -5.36, -5.36, -4.92, -4.92, -4.47, -4.47, -4.47, -4.02, -4.02, -3.58, -3.13, -2.68, -2.24, -1.34, -1.79, -2.24, -2.24, -1.79, -1.34, -1.34, -0.45, 0.0, 0.89, 1.34, 1.34, 1.34, 1.34, 1.34, 0.89, 0.89, 0.89, 0.89, 0.45, 0.45, 0.0, 0.0, 0.0, 0.0, 0.0, 0.0, 0.45, 0.89, 1.79, 2.68, 1.79, -0.45, -2.24, -3.13, -3.13, -2.24, -1.34, -0.45, -1.34, -1.79, 1.34, 5.36, 5.36, 4.02, 2.68, 2.24, 1.79, 1.79, 2.24, 2.68, 2.24, 1.79, 2.24, -9.39, -9.39, -9.39, -9.39, -9.39, -9.39, -9.39, -8.94, -8.94, -8.94, -8.49, -8.49, -8.49, -8.05, -8.05, -8.05, -8.05, -7.6, -7.6, -7.15, -7.15, -7.15, -6.71, -6.71, -6.71, -6.26, -6.26, -6.26, -5.81, -5.81, -5.81, -5.81, -5.36, -5.36, -5.36, -4.92, -4.92, -4.47, -4.02, -4.02, -3.58, -3.58, -3.13, -2.68, -1.79, -1.79, -2.24, -2.24, -2.24, -1.79, -0.89, 0.0, 0.45, 0.89, 1.34, 1.34, 1.34, 1.34, 0.89, 0.89, 0.89, 0.45, 0.45, 0.45, 0.0, 0.0, 0.0, 0.0, 0.0, 0.0, 0.45, 0.45, 0.0, 0.45, 3.13, 4.47, 2.68, -0.45, -2.68, -3.13, -2.24, -1.34, -0.45, -0.45, 0.0, 3.13, 5.36, 4.92, 3.58, 2.68, 1.79, 1.79, 1.79, 2.24, 2.24, 1.79, 1.79, 1.79, -9.39, -9.39, -9.39, -9.39, -9.39, -9.39, -8.94, -8.94, -8.94, -8.94, -8.49, -8.49, -8.49, -8.05, -8.05, -8.05, -8.05, -7.6, -7.6, -7.15, -7.15, -7.15, -6.71, -6.71, -6.71, -6.71, -6.71, -6.26, -6.26, -6.26, -5.81, -5.81, -5.81, -5.36, -5.36, -5.36, -4.92, -4.92, -4.47, -4.02, -4.02, -3.58, -3.58, -3.13, -2.68, -2.24, -1.79, -1.79, -1.34, -0.89, -0.45, 0.0, 0.89, 0.89, 1.34, 0.89, 0.89, 0.89, 0.89, 0.89, 0.45, 0.45, 0.45, 0.0, 0.45, 0.45, 0.0, 0.0, 0.0, 0.45, 0.45, 0.0, 0.0, 0.0, 0.89, 4.02, 4.92, 3.13, 0.89, 0.0, 0.45, 1.34, 1.79, 2.24, 3.13, 4.02, 4.47, 4.02, 3.13, 2.24, 1.34, 1.34, 1.79, 2.24, 1.79, 1.79, 1.79, 1.79, -9.39, -9.39, -9.39, -9.39, -9.39, -8.94, -8.94, -8.94, -8.94, -8.49, -8.49, -8.49, -8.49, -8.05, -8.05, -8.05, -8.05, -7.6, -7.6, -7.15, -7.15, -7.15, -7.15, -6.71, -6.71, -6.71, -6.71, -6.71, -6.26, -6.26, -6.26, -6.26, -5.81, -5.81, -5.81, -5.36, -5.36, -4.92, -4.92, -4.47, -4.02, -4.02, -3.58, -3.58, -3.58, -2.68, -1.79, -1.34, -0.89, -0.45, 0.0, 0.45, 0.45, 0.89, 0.89, 0.89, 0.89, 0.89, 0.45, 0.45, 0.45, 0.0, 0.0, 0.0, 0.45, 0.45, 0.45, 0.0, 0.45, 0.89, 0.45, 0.0, -0.45, -1.34, -0.89, 0.0, 2.24, 3.58, 4.02, 4.02, 4.02, 4.47, 4.47, 4.02, 4.02, 4.02, 3.58, 2.68, 1.79, 1.34, 0.89, 0.89, 1.79, 1.79, 1.79, 2.24, 2.24, 2.24, -9.39, -9.39, -9.39, -9.39, -8.94, -8.94, -8.94, -8.94, -8.94, -8.49, -8.49, -8.49, -8.05, -8.05, -8.05, -8.05, -7.6, -7.6, -7.6, -7.15, -7.15, -7.15, -7.15, -7.15, -6.71, -6.71, -6.71, -6.71, -6.71, -6.71, -6.26, -6.26, -6.26, -5.81, -5.81, -5.81, -5.36, -5.36, -4.92, -4.92, -4.47, -4.02, -4.02, -3.58, -3.58, -2.68, -2.24, -1.34, -0.89, -0.45, 0.0, 0.0, 0.0, 0.45, 0.45, 0.45, 0.45, 0.45, 0.45, 0.45, 0.45, 0.0, 0.0, 0.0, 0.45, 0.89, 0.89, 0.89, 1.34, 1.34, 0.45, 0.0, -1.34, -1.79, -2.24, -2.24, -0.45, 1.79, 4.02, 5.36, 5.81, 5.81, 4.92, 4.02, 3.58, 3.13, 2.24, 1.79, 0.89, 0.0, 0.0, 0.89, 1.34, 1.34, 1.79, 2.24, 2.24, 2.24, -9.39, -9.39, -9.39, -8.94, -8.94, -8.94, -8.94, -8.94, -8.49, -8.49, -8.49, -8.49, -8.05, -8.05, -8.05, -8.05, -7.6, -7.6, -7.6, -7.15, -7.15, -7.15, -7.15, -7.15, -7.15, -6.71, -6.71, -6.71, -6.71, -6.71, -6.71, -6.26, -6.26, -6.26, -5.81, -5.81, -5.81, -5.36, -5.36, -4.92, -4.47, -4.47, -4.02, -3.58, -3.58, -3.13, -2.68, -1.79, -1.34, -0.89, -0.45, 0.0, 0.0, 0.0, 0.0, 0.45, 0.45, 0.45, 0.45, 0.0, 0.0, 0.0, 0.0, 0.0, 0.0, 0.89, 0.89, 1.34, 1.79, 0.89, 0.0, -0.45, -1.34, -2.24, -2.24, -1.79, -0.45, 0.89, 2.68, 4.47, 5.81, 5.81, 4.92, 3.58, 2.68, 2.24, 1.34, 0.0, -0.45, -0.45, 0.0, 1.34, 1.34, 1.79, 2.24, 3.13, 3.13, 3.13, -8.94, -8.94, -8.94, -8.94, -8.94, -8.94, -8.94, -8.94, -8.49, -8.49, -8.49, -8.05, -8.05, -8.05, -8.05, -7.6, -7.6, -7.6, -7.6, -7.6, -7.15, -7.15, -7.15, -7.15, -7.15, -7.15, -6.71, -6.71, -6.71, -6.71, -6.71, -6.71, -6.26, -6.26, -5.81, -5.81, -5.81, -5.36, -5.36, -4.92, -4.92, -4.47, -4.02, -4.02, -3.58, -3.13, -2.68, -2.24, -1.79, -1.34, -0.89, -0.45, -0.45, 0.0, 0.0, 0.0, 0.0, 0.0, 0.0, 0.0, 0.0, 0.0, 0.0, 0.0, 0.0, 0.0, 0.45, 0.45, 0.0, 0.45, -0.45, -0.89, -1.34, -1.34, -1.34, -0.89, 0.0, 0.0, 1.34, 3.13, 4.47, 5.36, 4.47, 3.13, 2.68, 1.34, 0.0, -1.34, -1.34, -0.45, 0.89, 1.34, 1.34, 1.79, 2.68, 4.02, 4.02, 4.02, -8.94, -8.94, -8.94, -8.94, -8.94, -8.49, -8.49, -8.49, -8.49, -8.49, -8.49, -8.05, -8.05, -8.05, -8.05, -7.6, -7.6, -7.6, -7.6, -7.6, -7.15, -7.15, -7.15, -7.15, -7.15, -7.15, -7.15, -6.71, -6.71, -6.71, -6.71, -6.71, -6.26, -6.26, -5.81, -5.81, -5.81, -5.36, -5.36, -4.92, -4.47, -4.47, -4.02, -4.02, -3.58, -3.13, -3.13, -2.68, -2.24, -1.79, -1.34, -0.89, -0.45, -0.45, 0.0, 0.0, 0.0, 0.0, 0.0, 0.0, 0.0, 0.0, 0.0, 0.0, 0.0, 0.0, 0.0, 0.0, -0.45, -0.45, -0.89, -0.89, -0.89, -0.89, -0.45, -0.45, 0.0, 0.0, 0.89, 2.24, 3.13, 3.58, 3.58, 3.58, 2.68, 0.45, -1.34, -2.24, -1.34, 0.0, 0.45, 1.34, 1.79, 2.24, 3.58, 4.92, 4.92, 4.92, -8.94, -8.94, -8.94, -8.49, -8.49, -8.49, -8.49, -8.49, -8.49, -8.49, -8.05, -8.05, -8.05, -8.05, -7.6, -7.6, -7.6, -7.6, -7.6, -7.6, -7.6, -7.15, -7.15, -7.15, -7.15, -7.15, -7.15, -7.15, -6.71, -6.71, -6.71, -6.71, -6.26, -6.26, -5.81, -5.81, -5.36, -5.36, -4.92, -4.92, -4.47, -4.47, -4.02, -4.02, -3.58, -3.58, -3.13, -2.68, -2.24, -1.79, -1.34, -1.34, -0.89, -0.45, 0.0, 0.0, 0.0, 0.0, 0.0, 0.0, 0.0, 0.0, 0.0, 0.0, -0.45, -0.45, 0.0, 0.0, 0.0, 0.0, 0.0, -0.45, -0.45, -0.45, -0.45, -0.45, 0.0, 0.0, 0.89, 1.79, 2.24, 2.68, 4.02, 4.92, 3.58, 0.0, -2.24, -1.79, 0.0, 0.0, 0.45, 1.34, 1.79, 3.13, 4.92, 6.26, 6.26, 6.26, -8.94, -8.94, -8.49, -8.49, -8.49, -8.49, -8.49, -8.49, -8.49, -8.05, -8.05, -8.05, -8.05, -7.6, -7.6, -7.6, -7.6, -7.6, -7.6, -7.6, -7.15, -7.15, -7.15, -7.15, -7.15, -7.15, -7.15, -7.15, -6.71, -6.71, -6.71, -6.71, -6.26, -6.26, -5.81, -5.81, -5.36, -5.36, -4.92, -4.92, -4.47, -4.47, -4.02, -4.02, -3.58, -3.58, -3.13, -2.68, -2.68, -2.24, -1.79, -1.34, -0.89, -0.45, 0.0, 0.0, 0.0, 0.0, 0.0, 0.0, 0.0, 0.0, -0.45, -0.45, -0.45, -0.45, -0.45, 0.0, 0.0, 0.0, 0.0, -0.45, -0.45, -0.45, -0.45, -0.45, 0.0, 0.0, 0.89, 1.79, 1.79, 2.24, 4.02, 5.81, 4.02, 0.0, -0.89, 0.0, 0.0, 0.45, 0.45, 1.34, 2.68, 4.47, 6.26, 6.71, 6.71, 6.71, -8.49, -8.49, -8.49, -8.49, -8.49, -8.49, -8.49, -8.05, -8.05, -8.05, -8.05, -8.05, -8.05, -7.6, -7.6, -7.6, -7.6, -7.6, -7.6, -7.15, -7.15, -7.15, -7.15, -7.15, -7.15, -7.15, -7.15, -6.71, -6.71, -6.71, -6.71, -6.26, -6.26, -5.81, -5.81, -5.81, -5.36, -5.36, -4.92, -4.92, -4.47, -4.47, -4.02, -4.02, -3.58, -3.58, -3.13, -2.68, -2.68, -2.24, -1.79, -1.34, -0.89, -0.45, -0.45, 0.0, 0.0, 0.0, 0.0, 0.0, 0.0, -0.45, -0.45, -0.45, -0.89, -0.89, -0.45, 0.0, 0.0, 0.0, -0.45, -0.45, -1.34, -0.89, -0.89, -0.89, -0.45, 0.0, 0.45, 0.89, 1.34, 1.79, 3.13, 4.47, 3.13, 0.0, 0.0, 0.0, 0.45, 0.89, 1.34, 2.24, 4.47, 5.81, 6.26, 6.71, 6.71, 6.71, -8.49, -8.49, -8.49, -8.49, -8.05, -8.05, -8.05, -8.05, -8.05, -8.05, -8.05, -8.05, -8.05, -7.6, -7.6, -7.6, -7.6, -7.6, -7.15, -7.15, -7.15, -7.15, -7.15, -7.15, -7.15, -7.15, -6.71, -6.71, -6.71, -6.71, -6.26, -6.26, -6.26, -5.81, -5.81, -5.36, -5.36, -4.92, -4.92, -4.47, -4.47, -4.47, -4.02, -4.02, -3.58, -3.58, -3.13, -2.68, -2.68, -2.24, -1.79, -1.34, -0.89, -0.45, -0.45, -0.45, -0.45, -0.45, -0.45, -0.45, -0.45, -0.45, -0.45, -0.89, -0.89, -0.89, -0.89, -0.45, -0.45, -0.45, 0.0, -0.45, -0.89, -1.79, -1.79, -1.34, -0.89, 0.0, 0.0, 0.45, 0.89, 1.34, 1.79, 2.24, 0.89, 0.89, 0.89, 0.89, 0.89, 1.34, 2.24, 4.02, 5.36, 6.26, 6.26, 6.71, 6.71, 6.71, -8.49, -8.49, -8.49, -8.05, -8.05, -8.05, -8.05, -8.05, -8.05, -8.05, -8.05, -8.05, -8.05, -7.6, -7.6, -7.6, -7.6, -7.15, -7.15, -7.15, -7.15, -7.15, -7.15, -7.15, -7.15, -6.71, -6.71, -6.71, -6.71, -6.26, -6.26, -5.81, -5.81, -5.81, -5.36, -5.36, -5.36, -4.92, -4.92, -4.47, -4.47, -4.47, -4.02, -4.02, -3.58, -3.58, -3.13, -2.68, -2.68, -2.24, -1.79, -1.34, -0.89, -0.45, -0.45, -0.45, -0.45, -0.45, -0.45, -0.45, -0.45, -0.45, -0.89, -0.89, -0.89, -1.34, -1.34, -0.89, -0.45, -0.45, 0.0, -0.45, -0.45, -0.89, -2.24, -1.79, -1.34, -0.45, -0.45, 0.0, 0.0, 0.45, 0.89, 0.89, 0.89, 1.34, 1.34, 1.79, 2.24, 2.68, 4.02, 5.36, 5.81, 6.26, 6.26, 6.71, 6.71, 6.71, -8.49, -8.49, -8.05, -8.05, -8.05, -8.05, -8.05, -8.05, -8.05, -8.05, -8.05, -8.05, -8.05, -7.6, -7.6, -7.6, -7.6, -7.15, -7.15, -7.15, -7.15, -7.15, -7.15, -7.15, -6.71, -6.71, -6.71, -6.71, -6.26, -6.26, -5.81, -5.81, -5.81, -5.36, -5.36, -5.36, -4.92, -4.92, -4.47, -4.47, -4.47, -4.02, -4.02, -4.02, -3.58, -3.58, -3.13, -2.68, -2.68, -2.24, -1.79, -1.34, -0.89, -0.89, -0.45, -0.45, -0.45, -0.45, -0.45, -0.45, -0.45, -0.89, -0.89, -0.89, -1.34, -1.34, -1.34, -0.89, -0.45, -0.45, -0.45, -0.45, 0.0, 0.0, 0.0, -1.34, -0.89, -0.89, -0.89, -0.45, -0.45, 0.0, 0.89, 0.0, 0.45, 1.79, 2.24, 3.13, 4.02, 4.92, 5.36, 5.81, 5.81, 6.26, 6.26, 6.71, 6.71, 6.71, -8.05, -8.05, -8.05, -8.05, -8.05, -8.05, -8.05, -8.05, -8.05, -8.05, -8.05, -8.05, -7.6, -7.6, -7.6, -7.6, -7.6, -7.6, -7.15, -7.15, -7.15, -7.15, -7.15, -6.71, -6.71, -6.71, -6.71, -6.26, -6.26, -5.81, -5.81, -5.81, -5.36, -5.36, -5.36, -4.92, -4.92, -4.92, -4.47, -4.47, -4.47, -4.02, -4.02, -4.02, -3.58, -3.58, -3.13, -2.68, -2.68, -2.24, -1.79, -1.79, -0.89, -0.89, -0.89, -0.89, -0.89, -0.45, -0.45, -0.89, -0.89, -0.89, -0.89, -1.34, -1.34, -1.34, -1.79, -1.34, -0.89, -0.89, -0.89, -0.45, 0.0, 0.0, 0.45, 0.45, 0.0, -0.45, -0.89, -0.89, -0.89, -0.45, 0.45, 0.0, 0.89, 2.68, 3.58, 4.47, 5.81, 5.81, 5.81, 5.81, 6.26, 6.26, 6.26, 6.26, 6.26, 6.26, -8.05, -8.05, -8.05, -8.05, -8.05, -8.05, -8.05, -8.05, -8.05, -8.05, -8.05, -7.6, -7.6, -7.6, -7.6, -7.6, -7.6, -7.6, -7.15, -7.15, -7.15, -7.15, -6.71, -6.71, -6.71, -6.71, -6.26, -6.26, -6.26, -5.81, -5.81, -5.36, -5.36, -5.36, -5.36, -4.92, -4.92, -4.92, -4.47, -4.47, -4.47, -4.47, -4.02, -4.02, -3.58, -3.58, -3.13, -2.68, -2.68, -2.24, -2.24, -1.79, -1.34, -0.89, -0.89, -0.89, -0.89, -0.89, -0.89, -0.89, -0.89, -0.89, -1.34, -1.34, -1.34, -1.79, -1.79, -1.79, -1.79, -1.34, -0.89, -0.45, -0.45, 0.0, 0.0, 0.0, -0.45, -0.45, -0.89, -0.89, -0.89, 0.0, 0.0, 0.0, 1.34, 3.13, 4.47, 4.92, 5.36, 5.81, 5.81, 6.26, 6.26, 6.26, 6.26, 6.26, 6.26, 6.26, -8.05, -8.05, -8.05, -8.05, -8.05, -8.05, -8.05, -8.05, -7.6, -7.6, -7.6, -7.6, -7.6, -7.6, -7.6, -7.6, -7.6, -7.6, -7.15, -7.15, -7.15, -6.71, -6.71, -6.71, -6.71, -6.26, -6.26, -6.26, -5.81, -5.81, -5.81, -5.36, -5.36, -5.36, -4.92, -4.92, -4.92, -4.92, -4.47, -4.47, -4.47, -4.47, -4.02, -4.02, -3.58, -3.13, -3.13, -2.68, -2.68, -2.68, -2.24, -1.34, -1.34, -0.89, -0.89, -0.89, -0.89, -0.89, -0.89, -0.89, -0.89, -1.34, -1.34, -1.34, -1.34, -1.79, -1.79, -2.24, -2.24, -1.79, -1.79, -1.34, -1.34, -0.89, -0.45, -0.45, -0.89, -0.89, -1.34, -1.34, -0.45, 0.0, 0.0, 0.0, 0.89, 3.13, 4.02, 4.47, 4.92, 5.81, 5.81, 6.26, 6.26, 6.26, 6.26, 6.26, 6.26, 6.26, -8.05, -8.05, -8.05, -8.05, -8.05, -8.05, -7.6, -7.6, -7.6, -7.6, -7.6, -7.6, -7.6, -7.6, -7.6, -7.6, -7.6, -7.6, -7.15, -7.15, -7.15, -6.71, -6.71, -6.71, -6.26, -6.26, -6.26, -6.26, -5.81, -5.81, -5.36, -5.36, -5.36, -4.92, -4.92, -4.92, -4.92, -4.92, -4.47, -4.47, -4.47, -4.02, -4.02, -3.58, -3.58, -3.13, -3.13, -2.68, -2.68, -2.24, -2.24, -1.34, -1.34, -1.34, -1.34, -0.89, -0.89, -0.89, -0.89, -0.89, -1.34, -1.34, -1.34, -1.34, -1.34, -1.79, -1.79, -2.24, -2.68, -2.68, -2.24, -1.79, -1.34, -1.34, -1.34, -0.89, -1.34, -1.34, -2.24, -0.89, 0.0, 0.0, 0.0, 0.0, 0.0, 2.24, 3.58, 4.02, 4.47, 5.36, 5.81, 5.81, 6.26, 6.26, 6.26, 6.26, 6.26, 6.26, -8.05, -8.05, -8.05, -8.05, -8.05, -8.05, -7.6, -7.6, -7.6, -7.6, -7.6, -7.6, -7.6, -7.6, -7.6, -7.6, -7.6, -7.15, -7.15, -7.15, -7.15, -7.15, -6.71, -6.71, -6.26, -6.26, -6.26, -5.81, -5.81, -5.81, -5.36, -5.36, -5.36, -4.92, -4.92, -4.92, -4.92, -4.47, -4.47, -4.47, -4.02, -4.02, -3.58, -3.58, -3.58, -3.13, -3.13, -2.68, -2.68, -2.24, -1.79, -1.34, -1.34, -1.34, -1.34, -1.34, -1.34, -0.89, -0.89, -0.89, -1.34, -1.34, -1.34, -1.34, -1.79, -1.79, -1.79, -2.24, -2.68, -3.13, -2.68, -1.79, -1.34, -1.34, -1.34, -0.89, -0.45, -0.45, 0.0, -0.45, 0.0, 0.0, 0.0, -0.89, -0.89, 1.34, 2.68, 3.13, 4.02, 4.47, 5.36, 5.36, 5.81, 5.81, 6.26, 6.26, 6.26, 6.26, -8.05, -8.05, -8.05, -8.05, -8.05, -7.6, -7.6, -7.6, -7.6, -7.6, -7.6, -7.6, -7.6, -7.6, -7.6, -7.6, -7.15, -7.15, -7.15, -7.15, -7.15, -7.15, -6.71, -6.71, -6.26, -6.26, -6.26, -5.81, -5.81, -5.81, -5.36, -5.36, -5.36, -4.92, -4.92, -4.92, -4.92, -4.47, -4.47, -4.47, -4.02, -3.58, -3.58, -3.58, -3.58, -3.13, -3.13, -2.68, -2.68, -2.24, -1.79, -1.79, -1.34, -1.34, -1.34, -1.34, -1.34, -1.34, -1.34, -1.34, -1.34, -1.34, -1.34, -1.34, -1.79, -1.79, -1.79, -2.24, -2.68, -2.68, -2.68, -2.24, -1.34, -0.89, -0.89, -0.89, -0.45, 0.0, 0.0, -0.45, -0.45, -0.89, -0.89, -1.34, -1.34, 0.0, 1.34, 1.79, 2.68, 3.58, 4.47, 4.92, 5.36, 5.81, 5.81, 5.81, 5.81, 5.81, -8.05, -8.05, -8.05, -8.05, -8.05, -7.6, -7.6, -7.6, -7.6, -7.6, -7.6, -7.6, -7.6, -7.6, -7.6, -7.6, -7.15, -7.15, -7.15, -7.15, -7.15, -6.71, -6.71, -6.71, -6.26, -6.26, -6.26, -5.81, -5.81, -5.81, -5.36, -5.36, -5.36, -5.36, -4.92, -4.92, -4.92, -4.47, -4.47, -4.47, -4.02, -4.02, -3.58, -3.58, -3.58, -3.13, -3.13, -2.68, -2.68, -2.24, -1.79, -1.79, -1.34, -1.34, -1.34, -1.34, -1.34, -1.34, -1.34, -1.34, -1.34, -1.34, -1.34, -1.34, -1.34, -1.79, -1.79, -2.24, -2.24, -2.68, -2.68, -2.68, -1.79, -0.89, -0.89, -0.89, -0.45, 0.0, -0.45, -0.89, -1.34, -1.34, -1.79, -1.79, -1.79, -1.34, -0.45, 0.45, 1.34, 2.24, 3.13, 4.02, 4.47, 4.92, 5.36, 5.36, 5.36, 5.36, -8.05, -8.05, -8.05, -8.05, -8.05, -7.6, -7.6, -7.6, -7.6, -7.6, -7.6, -7.6, -7.6, -7.6, -7.6, -7.6, -7.15, -7.15, -7.15, -7.15, -7.15, -6.71, -6.71, -6.71, -6.26, -6.26, -6.26, -5.81, -5.81, -5.81, -5.36, -5.36, -5.36, -5.36, -4.92, -4.92, -4.92, -4.47, -4.47, -4.47, -4.02, -4.02, -3.58, -3.58, -3.58, -3.13, -3.13, -2.68, -2.68, -2.24, -1.79, -1.79, -1.34, -1.34, -1.34, -1.34, -1.34, -1.34, -1.34, -1.34, -1.34, -1.34, -1.34, -1.34, -1.34, -1.79, -1.79, -2.24, -2.24, -2.68, -2.68, -2.68, -1.79, -0.89, -0.89, -0.89, -0.45, 0.0, -0.45, -0.89, -1.34, -2.24, -2.24, -2.24, -1.79, -1.79, -1.34, -0.45, 0.45, 1.34, 1.79, 2.68, 4.02, 4.47, 4.92, 4.92, 4.92, 4.92]}]